Wetterdaten: Dienstag, 26.03.2013
Datum Zeit Temp. Aussen +5cm Feuchte Auss Luftdruck Regen Sonnenschein Regendauer UV Solar Windben
26.03.2013 00:00 -1,3 C -2,7 C 66 % 1013,1 hPa 0,0 l/m 0 min 0 min 0,0 UV-I 0 W/m 5,1 km/h (1 Bft)
26.03.2013 00:02 -1,3 C -2,7 C 66 % 1013,0 hPa 0,0 l/m 0 min 0 min 0,0 UV-I 0 W/m 2,6 km/h (1 Bft)
26.03.2013 00:04 -1,4 C -2,7 C 67 % 1013,1 hPa 0,0 l/m 0 min 0 min 0,0 UV-I 0 W/m 0,0 km/h (0 Bft)
26.03.2013 00:06 -1,4 C -2,7 C 67 % 1013,1 hPa 0,0 l/m 0 min 0 min 0,0 UV-I 0 W/m 0,0 km/h (0 Bft)
26.03.2013 00:08 -1,4 C -2,7 C 67 % 1013,1 hPa 0,0 l/m 0 min 0 min 0,0 UV-I 0 W/m 2,6 km/h (1 Bft)
26.03.2013 00:10 -1,4 C -2,7 C 67 % 1013,1 hPa 0,0 l/m 0 min 0 min 0,0 UV-I 0 W/m 5,1 km/h (1 Bft)
26.03.2013 00:12 -1,4 C -2,7 C 67 % 1013,2 hPa 0,0 l/m 0 min 0 min 0,0 UV-I 0 W/m 5,1 km/h (1 Bft)
26.03.2013 00:14 -1,4 C -3,2 C 67 % 1013,2 hPa 0,0 l/m 0 min 0 min 0,0 UV-I 0 W/m 0,0 km/h (0 Bft)
26.03.2013 00:16 -1,4 C -3,2 C 67 % 1013,2 hPa 0,0 l/m 0 min 0 min 0,0 UV-I 0 W/m 0,0 km/h (0 Bft)
26.03.2013 00:18 -1,5 C -3,2 C 67 % 1013,1 hPa 0,0 l/m 0 min 0 min 0,0 UV-I 0 W/m 5,1 km/h (1 Bft)
26.03.2013 00:20 -1,5 C -3,2 C 67 % 1013,1 hPa 0,0 l/m 0 min 0 min 0,0 UV-I 0 W/m 0,0 km/h (0 Bft)
26.03.2013 00:22 -1,5 C -3,2 C 68 % 1013,1 hPa 0,0 l/m 0 min 0 min 0,0 UV-I 0 W/m 7,7 km/h (2 Bft)
26.03.2013 00:24 -1,6 C -3,2 C 68 % 1013,2 hPa 0,0 l/m 0 min 0 min 0,0 UV-I 0 W/m 7,7 km/h (2 Bft)
26.03.2013 00:26 -1,6 C -3,2 C 68 % 1013,1 hPa 0,0 l/m 0 min 0 min 0,0 UV-I 0 W/m 0,0 km/h (0 Bft)
26.03.2013 00:28 -1,6 C -3,2 C 68 % 1013,1 hPa 0,0 l/m 0 min 0 min 0,0 UV-I 0 W/m 2,6 km/h (1 Bft)
26.03.2013 00:30 -1,6 C -3,2 C 68 % 1013,1 hPa 0,0 l/m 0 min 0 min 0,0 UV-I 0 W/m 0,0 km/h (0 Bft)
26.03.2013 00:32 -1,6 C -3,2 C 68 % 1013,1 hPa 0,0 l/m 0 min 0 min 0,0 UV-I 0 W/m 0,0 km/h (0 Bft)
26.03.2013 00:34 -1,6 C -3,2 C 68 % 1013,0 hPa 0,0 l/m 0 min 0 min 0,0 UV-I 0 W/m 0,0 km/h (0 Bft)
26.03.2013 00:36 -1,6 C -3,2 C 68 % 1013,0 hPa 0,0 l/m 0 min 0 min 0,0 UV-I 0 W/m 2,6 km/h (1 Bft)
26.03.2013 00:38 -1,7 C -3,2 C 68 % 1013,0 hPa 0,0 l/m 0 min 0 min 0,0 UV-I 0 W/m 0,0 km/h (0 Bft)
26.03.2013 00:40 -1,7 C -3,2 C 68 % 1012,9 hPa 0,0 l/m 0 min 0 min 0,0 UV-I 0 W/m 5,1 km/h (1 Bft)
26.03.2013 00:42 -1,7 C -3,2 C 69 % 1012,9 hPa 0,0 l/m 0 min 0 min 0,0 UV-I 0 W/m 5,1 km/h (1 Bft)
26.03.2013 00:44 -1,7 C -3,2 C 69 % 1013,0 hPa 0,0 l/m 0 min 0 min 0,0 UV-I 0 W/m 0,0 km/h (0 Bft)
26.03.2013 00:46 -1,7 C -3,2 C 69 % 1012,9 hPa 0,0 l/m 0 min 0 min 0,0 UV-I 0 W/m 2,6 km/h (1 Bft)
26.03.2013 00:48 -1,8 C -3,2 C 69 % 1013,0 hPa 0,0 l/m 0 min 0 min 0,0 UV-I 0 W/m 0,0 km/h (0 Bft)
26.03.2013 00:50 -1,8 C -3,2 C 69 % 1012,9 hPa 0,0 l/m 0 min 0 min 0,0 UV-I 0 W/m 0,0 km/h (0 Bft)
26.03.2013 00:52 -1,8 C -3,2 C 69 % 1012,9 hPa 0,0 l/m 0 min 0 min 0,0 UV-I 0 W/m 2,6 km/h (1 Bft)
26.03.2013 00:54 -1,8 C -3,2 C 69 % 1012,9 hPa 0,0 l/m 0 min 0 min 0,0 UV-I 0 W/m 5,1 km/h (1 Bft)
26.03.2013 00:56 -1,8 C -3,2 C 69 % 1012,9 hPa 0,0 l/m 0 min 0 min 0,0 UV-I 0 W/m 7,7 km/h (2 Bft)
26.03.2013 00:58 -1,8 C -3,2 C 69 % 1012,9 hPa 0,0 l/m 0 min 0 min 0,0 UV-I 0 W/m 12,9 km/h (3 Bft)
26.03.2013 01:00 -1,8 C -3,2 C 69 % 1013,0 hPa 0,0 l/m 0 min 0 min 0,0 UV-I 0 W/m 2,6 km/h (1 Bft)
26.03.2013 01:02 -1,8 C -3,2 C 69 % 1012,9 hPa 0,0 l/m 0 min 0 min 0,0 UV-I 0 W/m 2,6 km/h (1 Bft)
26.03.2013 01:04 -1,8 C -3,2 C 69 % 1013,0 hPa 0,0 l/m 0 min 0 min 0,0 UV-I 0 W/m 0,0 km/h (0 Bft)
26.03.2013 01:06 -1,9 C -3,2 C 69 % 1013,0 hPa 0,0 l/m 0 min 0 min 0,0 UV-I 0 W/m 5,1 km/h (1 Bft)
26.03.2013 01:08 -1,9 C -3,2 C 69 % 1013,0 hPa 0,0 l/m 0 min 0 min 0,0 UV-I 0 W/m 2,6 km/h (1 Bft)
26.03.2013 01:10 -1,9 C -3,2 C 69 % 1012,9 hPa 0,0 l/m 0 min 0 min 0,0 UV-I 0 W/m 0,0 km/h (0 Bft)
26.03.2013 01:12 -1,9 C -3,2 C 69 % 1013,0 hPa 0,0 l/m 0 min 0 min 0,0 UV-I 0 W/m 2,6 km/h (1 Bft)
26.03.2013 01:14 -1,9 C -3,2 C 69 % 1013,0 hPa 0,0 l/m 0 min 0 min 0,0 UV-I 0 W/m 0,0 km/h (0 Bft)
26.03.2013 01:16 -1,9 C -3,2 C 69 % 1013,0 hPa 0,0 l/m 0 min 0 min 0,0 UV-I 0 W/m 0,0 km/h (0 Bft)
26.03.2013 01:18 -1,9 C -3,2 C 69 % 1013,1 hPa 0,0 l/m 0 min 0 min 0,0 UV-I 0 W/m 0,0 km/h (0 Bft)
26.03.2013 01:20 -1,9 C -3,2 C 69 % 1013,1 hPa 0,0 l/m 0 min 0 min 0,0 UV-I 0 W/m 7,7 km/h (2 Bft)
26.03.2013 01:22 -1,9 C -3,2 C 69 % 1013,1 hPa 0,0 l/m 0 min 0 min 0,0 UV-I 0 W/m 0,0 km/h (0 Bft)
26.03.2013 01:24 -2,0 C -3,2 C 69 % 1013,1 hPa 0,0 l/m 0 min 0 min 0,0 UV-I 0 W/m 2,6 km/h (1 Bft)
26.03.2013 01:26 -2,0 C -3,2 C 70 % 1013,0 hPa 0,0 l/m 0 min 0 min 0,0 UV-I 0 W/m 2,6 km/h (1 Bft)
26.03.2013 01:28 -2,1 C -3,2 C 69 % 1013,0 hPa 0,0 l/m 0 min 0 min 0,0 UV-I 0 W/m 5,1 km/h (1 Bft)
26.03.2013 01:30 -2,1 C -3,2 C 69 % 1013,0 hPa 0,0 l/m 0 min 0 min 0,0 UV-I 0 W/m 5,1 km/h (1 Bft)
26.03.2013 01:32 -2,1 C -3,8 C 69 % 1013,0 hPa 0,0 l/m 0 min 0 min 0,0 UV-I 0 W/m 0,0 km/h (0 Bft)
26.03.2013 01:34 -2,1 C -3,2 C 70 % 1013,0 hPa 0,0 l/m 0 min 0 min 0,0 UV-I 0 W/m 5,1 km/h (1 Bft)
26.03.2013 01:36 -2,1 C -3,2 C 70 % 1013,1 hPa 0,0 l/m 0 min 0 min 0,0 UV-I 0 W/m 0,0 km/h (0 Bft)
26.03.2013 01:38 -2,1 C -3,2 C 70 % 1013,0 hPa 0,0 l/m 0 min 0 min 0,0 UV-I 0 W/m 0,0 km/h (0 Bft)
26.03.2013 01:40 -2,1 C -3,2 C 70 % 1013,0 hPa 0,0 l/m 0 min 0 min 0,0 UV-I 0 W/m 2,6 km/h (1 Bft)
26.03.2013 01:42 -2,2 C -3,2 C 70 % 1012,9 hPa 0,0 l/m 0 min 0 min 0,0 UV-I 0 W/m 7,7 km/h (2 Bft)
26.03.2013 01:44 -2,2 C -3,2 C 70 % 1012,9 hPa 0,0 l/m 0 min 0 min 0,0 UV-I 0 W/m 2,6 km/h (1 Bft)
26.03.2013 01:46 -2,2 C -3,8 C 70 % 1013,0 hPa 0,0 l/m 0 min 0 min 0,0 UV-I 0 W/m 5,1 km/h (1 Bft)
26.03.2013 01:48 -2,2 C -3,8 C 70 % 1012,9 hPa 0,0 l/m 0 min 0 min 0,0 UV-I 0 W/m 5,1 km/h (1 Bft)
26.03.2013 01:50 -2,2 C -3,8 C 69 % 1013,0 hPa 0,0 l/m 0 min 0 min 0,0 UV-I 0 W/m 0,0 km/h (0 Bft)
26.03.2013 01:52 -2,2 C -3,8 C 69 % 1012,9 hPa 0,0 l/m 0 min 0 min 0,0 UV-I 0 W/m 5,1 km/h (1 Bft)
26.03.2013 01:54 -2,2 C -3,8 C 69 % 1012,9 hPa 0,0 l/m 0 min 0 min 0,0 UV-I 0 W/m 2,6 km/h (1 Bft)
26.03.2013 01:56 -2,2 C -3,8 C 69 % 1012,9 hPa 0,0 l/m 0 min 0 min 0,0 UV-I 0 W/m 10,3 km/h (2 Bft)
26.03.2013 01:58 -2,2 C -3,8 C 69 % 1012,9 hPa 0,0 l/m 0 min 0 min 0,0 UV-I 0 W/m 0,0 km/h (0 Bft)
26.03.2013 02:00 -2,2 C -3,8 C 69 % 1012,9 hPa 0,0 l/m 0 min 0 min 0,0 UV-I 0 W/m 0,0 km/h (0 Bft)
26.03.2013 02:02 -2,2 C -3,8 C 69 % 1012,9 hPa 0,0 l/m 0 min 0 min 0,0 UV-I 0 W/m 5,1 km/h (1 Bft)
26.03.2013 02:04 -2,2 C -3,8 C 69 % 1012,9 hPa 0,0 l/m 0 min 0 min 0,0 UV-I 0 W/m 2,6 km/h (1 Bft)
26.03.2013 02:06 -2,2 C -3,8 C 70 % 1012,9 hPa 0,0 l/m 0 min 0 min 0,0 UV-I 0 W/m 5,1 km/h (1 Bft)
26.03.2013 02:08 -2,3 C -3,8 C 69 % 1012,8 hPa 0,0 l/m 0 min 0 min 0,0 UV-I 0 W/m 0,0 km/h (0 Bft)
26.03.2013 02:10 -2,3 C -3,8 C 70 % 1012,8 hPa 0,0 l/m 0 min 0 min 0,0 UV-I 0 W/m 5,1 km/h (1 Bft)
26.03.2013 02:12 -2,3 C -3,8 C 70 % 1012,8 hPa 0,0 l/m 0 min 0 min 0,0 UV-I 0 W/m 2,6 km/h (1 Bft)
26.03.2013 02:14 -2,3 C -3,8 C 70 % 1012,8 hPa 0,0 l/m 0 min 0 min 0,0 UV-I 0 W/m 7,7 km/h (2 Bft)
26.03.2013 02:16 -2,3 C -3,8 C 70 % 1012,8 hPa 0,0 l/m 0 min 0 min 0,0 UV-I 0 W/m 2,6 km/h (1 Bft)
26.03.2013 02:18 -2,3 C -3,8 C 70 % 1012,8 hPa 0,0 l/m 0 min 0 min 0,0 UV-I 0 W/m 7,7 km/h (2 Bft)
26.03.2013 02:20 -2,3 C -3,8 C 70 % 1012,8 hPa 0,0 l/m 0 min 0 min 0,0 UV-I 0 W/m 7,7 km/h (2 Bft)
26.03.2013 02:22 -2,3 C -3,8 C 70 % 1012,8 hPa 0,0 l/m 0 min 0 min 0,0 UV-I 0 W/m 5,1 km/h (1 Bft)
26.03.2013 02:24 -2,3 C -3,8 C 70 % 1012,8 hPa 0,0 l/m 0 min 0 min 0,0 UV-I 0 W/m 0,0 km/h (0 Bft)
26.03.2013 02:26 -2,3 C -3,8 C 69 % 1012,8 hPa 0,0 l/m 0 min 0 min 0,0 UV-I 0 W/m 5,1 km/h (1 Bft)
26.03.2013 02:28 -2,3 C -3,8 C 69 % 1012,8 hPa 0,0 l/m 0 min 0 min 0,0 UV-I 0 W/m 7,7 km/h (2 Bft)
26.03.2013 02:30 -2,3 C -3,8 C 69 % 1012,8 hPa 0,0 l/m 0 min 0 min 0,0 UV-I 0 W/m 2,6 km/h (1 Bft)
26.03.2013 02:32 -2,3 C -3,8 C 69 % 1012,8 hPa 0,0 l/m 0 min 0 min 0,0 UV-I 0 W/m 2,6 km/h (1 Bft)
26.03.2013 02:34 -2,3 C -3,8 C 70 % 1012,8 hPa 0,0 l/m 0 min 0 min 0,0 UV-I 0 W/m 2,6 km/h (1 Bft)
26.03.2013 02:36 -2,4 C -3,8 C 69 % 1012,8 hPa 0,0 l/m 0 min 0 min 0,0 UV-I 0 W/m 7,7 km/h (2 Bft)
26.03.2013 02:38 -2,4 C -3,8 C 69 % 1012,8 hPa 0,0 l/m 0 min 0 min 0,0 UV-I 0 W/m 0,0 km/h (0 Bft)
26.03.2013 02:40 -2,4 C -3,8 C 69 % 1012,8 hPa 0,0 l/m 0 min 0 min 0,0 UV-I 0 W/m 5,1 km/h (1 Bft)
26.03.2013 02:42 -2,4 C -3,8 C 69 % 1012,7 hPa 0,0 l/m 0 min 0 min 0,0 UV-I 0 W/m 2,6 km/h (1 Bft)
26.03.2013 02:44 -2,4 C -3,8 C 69 % 1012,8 hPa 0,0 l/m 0 min 0 min 0,0 UV-I 0 W/m 0,0 km/h (0 Bft)
26.03.2013 02:46 -2,4 C -3,8 C 69 % 1012,7 hPa 0,0 l/m 0 min 0 min 0,0 UV-I 0 W/m 5,1 km/h (1 Bft)
26.03.2013 02:48 -2,4 C -3,8 C 69 % 1012,7 hPa 0,0 l/m 0 min 0 min 0,0 UV-I 0 W/m 2,6 km/h (1 Bft)
26.03.2013 02:50 -2,4 C -3,8 C 69 % 1012,7 hPa 0,0 l/m 0 min 0 min 0,0 UV-I 0 W/m 2,6 km/h (1 Bft)
26.03.2013 02:52 -2,4 C -3,8 C 69 % 1012,7 hPa 0,0 l/m 0 min 0 min 0,0 UV-I 0 W/m 2,6 km/h (1 Bft)
26.03.2013 02:54 -2,5 C -3,8 C 69 % 1012,7 hPa 0,0 l/m 0 min 0 min 0,0 UV-I 0 W/m 10,3 km/h (2 Bft)
26.03.2013 02:56 -2,5 C -3,8 C 69 % 1012,7 hPa 0,0 l/m 0 min 0 min 0,0 UV-I 0 W/m 2,6 km/h (1 Bft)
26.03.2013 02:58 -2,5 C -3,8 C 69 % 1012,7 hPa 0,0 l/m 0 min 0 min 0,0 UV-I 0 W/m 2,6 km/h (1 Bft)
26.03.2013 03:00 -2,5 C -3,8 C 69 % 1012,7 hPa 0,0 l/m 0 min 0 min 0,0 UV-I 0 W/m 5,1 km/h (1 Bft)
26.03.2013 03:02 -2,5 C -3,8 C 69 % 1012,7 hPa 0,0 l/m 0 min 0 min 0,0 UV-I 0 W/m 2,6 km/h (1 Bft)
26.03.2013 03:04 -2,5 C -3,8 C 69 % 1012,6 hPa 0,0 l/m 0 min 0 min 0,0 UV-I 0 W/m 2,6 km/h (1 Bft)
26.03.2013 03:06 -2,5 C -3,8 C 69 % 1012,6 hPa 0,0 l/m 0 min 0 min 0,0 UV-I 0 W/m 0,0 km/h (0 Bft)
26.03.2013 03:08 -2,6 C -3,8 C 69 % 1012,7 hPa 0,0 l/m 0 min 0 min 0,0 UV-I 0 W/m 2,6 km/h (1 Bft)
26.03.2013 03:10 -2,6 C -3,8 C 69 % 1012,6 hPa 0,0 l/m 0 min 0 min 0,0 UV-I 0 W/m 2,6 km/h (1 Bft)
26.03.2013 03:12 -2,6 C -3,8 C 69 % 1012,6 hPa 0,0 l/m 0 min 0 min 0,0 UV-I 0 W/m 2,6 km/h (1 Bft)
26.03.2013 03:14 -2,6 C -4,3 C 69 % 1012,6 hPa 0,0 l/m 0 min 0 min 0,0 UV-I 0 W/m 2,6 km/h (1 Bft)
26.03.2013 03:16 -2,6 C -4,3 C 69 % 1012,6 hPa 0,0 l/m 0 min 0 min 0,0 UV-I 0 W/m 5,1 km/h (1 Bft)
26.03.2013 03:18 -2,6 C -3,8 C 69 % 1012,6 hPa 0,0 l/m 0 min 0 min 0,0 UV-I 0 W/m 5,1 km/h (1 Bft)
26.03.2013 03:20 -2,6 C -3,8 C 69 % 1012,6 hPa 0,0 l/m 0 min 0 min 0,0 UV-I 0 W/m 0,0 km/h (0 Bft)
26.03.2013 03:22 -2,6 C -3,8 C 69 % 1012,6 hPa 0,0 l/m 0 min 0 min 0,0 UV-I 0 W/m 2,6 km/h (1 Bft)
26.03.2013 03:24 -2,6 C -4,3 C 69 % 1012,6 hPa 0,0 l/m 0 min 0 min 0,0 UV-I 0 W/m 0,0 km/h (0 Bft)
26.03.2013 03:26 -2,6 C -3,8 C 69 % 1012,6 hPa 0,0 l/m 0 min 0 min 0,0 UV-I 0 W/m 5,1 km/h (1 Bft)
26.03.2013 03:28 -2,7 C -3,8 C 69 % 1012,6 hPa 0,0 l/m 0 min 0 min 0,0 UV-I 0 W/m 7,7 km/h (2 Bft)
26.03.2013 03:30 -2,7 C -3,8 C 69 % 1012,6 hPa 0,0 l/m 0 min 0 min 0,0 UV-I 0 W/m 2,6 km/h (1 Bft)
26.03.2013 03:32 -2,7 C -3,8 C 69 % 1012,6 hPa 0,0 l/m 0 min 0 min 0,0 UV-I 0 W/m 7,7 km/h (2 Bft)
26.03.2013 03:34 -2,7 C -3,8 C 69 % 1012,6 hPa 0,0 l/m 0 min 0 min 0,0 UV-I 0 W/m 2,6 km/h (1 Bft)
26.03.2013 03:36 -2,7 C -4,3 C 69 % 1012,6 hPa 0,0 l/m 0 min 0 min 0,0 UV-I 0 W/m 0,0 km/h (0 Bft)
26.03.2013 03:38 -2,7 C -4,3 C 69 % 1012,5 hPa 0,0 l/m 0 min 0 min 0,0 UV-I 0 W/m 2,6 km/h (1 Bft)
26.03.2013 03:40 -2,7 C -4,3 C 69 % 1012,5 hPa 0,0 l/m 0 min 0 min 0,0 UV-I 0 W/m 0,0 km/h (0 Bft)
26.03.2013 03:42 -2,7 C -4,3 C 69 % 1012,5 hPa 0,0 l/m 0 min 0 min 0,0 UV-I 0 W/m 2,6 km/h (1 Bft)
26.03.2013 03:44 -2,7 C -4,3 C 69 % 1012,6 hPa 0,0 l/m 0 min 0 min 0,0 UV-I 0 W/m 5,1 km/h (1 Bft)
26.03.2013 03:46 -2,7 C -4,3 C 69 % 1012,6 hPa 0,0 l/m 0 min 0 min 0,0 UV-I 0 W/m 2,6 km/h (1 Bft)
26.03.2013 03:48 -2,8 C -4,3 C 69 % 1012,6 hPa 0,0 l/m 0 min 0 min 0,0 UV-I 0 W/m 5,1 km/h (1 Bft)
26.03.2013 03:50 -2,8 C -4,3 C 69 % 1012,6 hPa 0,0 l/m 0 min 0 min 0,0 UV-I 0 W/m 0,0 km/h (0 Bft)
26.03.2013 03:52 -2,8 C -4,3 C 69 % 1012,6 hPa 0,0 l/m 0 min 0 min 0,0 UV-I 0 W/m 0,0 km/h (0 Bft)
26.03.2013 03:54 -2,8 C -4,3 C 69 % 1012,6 hPa 0,0 l/m 0 min 0 min 0,0 UV-I 0 W/m 5,1 km/h (1 Bft)
26.03.2013 03:56 -2,8 C -4,3 C 69 % 1012,7 hPa 0,0 l/m 0 min 0 min 0,0 UV-I 0 W/m 5,1 km/h (1 Bft)
26.03.2013 03:58 -2,8 C -4,3 C 68 % 1012,6 hPa 0,0 l/m 0 min 0 min 0,0 UV-I 0 W/m 5,1 km/h (1 Bft)
26.03.2013 04:00 -2,8 C -4,3 C 69 % 1012,7 hPa 0,0 l/m 0 min 0 min 0,0 UV-I 0 W/m 2,6 km/h (1 Bft)
26.03.2013 04:02 -2,8 C -4,3 C 69 % 1012,7 hPa 0,0 l/m 0 min 0 min 0,0 UV-I 0 W/m 0,0 km/h (0 Bft)
26.03.2013 04:04 -2,8 C -4,3 C 69 % 1012,6 hPa 0,0 l/m 0 min 0 min 0,0 UV-I 0 W/m 2,6 km/h (1 Bft)
26.03.2013 04:06 -2,8 C -4,3 C 69 % 1012,6 hPa 0,0 l/m 0 min 0 min 0,0 UV-I 0 W/m 2,6 km/h (1 Bft)
26.03.2013 04:08 -2,8 C -4,3 C 68 % 1012,6 hPa 0,0 l/m 0 min 0 min 0,0 UV-I 0 W/m 10,3 km/h (2 Bft)
26.03.2013 04:10 -2,8 C -4,3 C 69 % 1012,6 hPa 0,0 l/m 0 min 0 min 0,0 UV-I 0 W/m 15,4 km/h (3 Bft)
26.03.2013 04:12 -2,8 C -3,8 C 68 % 1012,7 hPa 0,0 l/m 0 min 0 min 0,0 UV-I 0 W/m 12,9 km/h (3 Bft)
26.03.2013 04:14 -2,8 C -3,8 C 68 % 1012,7 hPa 0,0 l/m 0 min 0 min 0,0 UV-I 0 W/m 12,9 km/h (3 Bft)
26.03.2013 04:16 -2,8 C -3,8 C 68 % 1012,7 hPa 0,0 l/m 0 min 0 min 0,0 UV-I 0 W/m 10,3 km/h (2 Bft)
26.03.2013 04:18 -2,8 C -4,3 C 68 % 1012,7 hPa 0,0 l/m 0 min 0 min 0,0 UV-I 0 W/m 5,1 km/h (1 Bft)
26.03.2013 04:20 -2,8 C -4,3 C 68 % 1012,7 hPa 0,0 l/m 0 min 0 min 0,0 UV-I 0 W/m 0,0 km/h (0 Bft)
26.03.2013 04:22 -2,8 C -4,3 C 68 % 1012,7 hPa 0,0 l/m 0 min 0 min 0,0 UV-I 0 W/m 5,1 km/h (1 Bft)
26.03.2013 04:24 -2,8 C -4,3 C 68 % 1012,7 hPa 0,0 l/m 0 min 0 min 0,0 UV-I 0 W/m 10,3 km/h (2 Bft)
26.03.2013 04:26 -2,9 C -4,3 C 68 % 1012,7 hPa 0,0 l/m 0 min 0 min 0,0 UV-I 0 W/m 5,1 km/h (1 Bft)
26.03.2013 04:28 -2,9 C -4,3 C 68 % 1012,7 hPa 0,0 l/m 0 min 0 min 0,0 UV-I 0 W/m 0,0 km/h (0 Bft)
26.03.2013 04:30 -2,9 C -4,3 C 68 % 1012,7 hPa 0,0 l/m 0 min 0 min 0,0 UV-I 0 W/m 5,1 km/h (1 Bft)
26.03.2013 04:32 -2,9 C -4,3 C 68 % 1012,7 hPa 0,0 l/m 0 min 0 min 0,0 UV-I 0 W/m 7,7 km/h (2 Bft)
26.03.2013 04:34 -2,9 C -4,3 C 68 % 1012,7 hPa 0,0 l/m 0 min 0 min 0,0 UV-I 0 W/m 10,3 km/h (2 Bft)
26.03.2013 04:36 -2,9 C -4,3 C 68 % 1012,8 hPa 0,0 l/m 0 min 0 min 0,0 UV-I 0 W/m 5,1 km/h (1 Bft)
26.03.2013 04:38 -2,9 C -4,3 C 68 % 1012,8 hPa 0,0 l/m 0 min 0 min 0,0 UV-I 0 W/m 7,7 km/h (2 Bft)
26.03.2013 04:40 -2,9 C -4,3 C 68 % 1012,7 hPa 0,0 l/m 0 min 0 min 0,0 UV-I 0 W/m 7,7 km/h (2 Bft)
26.03.2013 04:42 -2,9 C -4,3 C 68 % 1012,8 hPa 0,0 l/m 0 min 0 min 0,0 UV-I 0 W/m 2,6 km/h (1 Bft)
26.03.2013 04:44 -2,9 C -4,3 C 68 % 1012,7 hPa 0,0 l/m 0 min 0 min 0,0 UV-I 0 W/m 0,0 km/h (0 Bft)
26.03.2013 04:46 -3,0 C -4,3 C 68 % 1012,7 hPa 0,0 l/m 0 min 0 min 0,0 UV-I 0 W/m 10,3 km/h (2 Bft)
26.03.2013 04:48 -3,0 C -4,3 C 68 % 1012,6 hPa 0,0 l/m 0 min 0 min 0,0 UV-I 0 W/m 10,3 km/h (2 Bft)
26.03.2013 04:50 -3,0 C -4,3 C 68 % 1012,6 hPa 0,0 l/m 0 min 0 min 0,0 UV-I 0 W/m 7,7 km/h (2 Bft)
26.03.2013 04:52 -3,0 C -4,3 C 69 % 1012,7 hPa 0,0 l/m 0 min 0 min 0,0 UV-I 0 W/m 5,1 km/h (1 Bft)
26.03.2013 04:54 -3,1 C -4,3 C 68 % 1012,7 hPa 0,0 l/m 0 min 0 min 0,0 UV-I 0 W/m 7,7 km/h (2 Bft)
26.03.2013 04:56 -3,1 C -4,3 C 68 % 1012,7 hPa 0,0 l/m 0 min 0 min 0,0 UV-I 0 W/m 2,6 km/h (1 Bft)
26.03.2013 04:58 -3,1 C -4,3 C 69 % 1012,7 hPa 0,0 l/m 0 min 0 min 0,0 UV-I 0 W/m 5,1 km/h (1 Bft)
26.03.2013 05:00 -3,1 C -4,3 C 69 % 1012,7 hPa 0,0 l/m 0 min 0 min 0,0 UV-I 0 W/m 7,7 km/h (2 Bft)
26.03.2013 05:02 -3,1 C -4,3 C 69 % 1012,7 hPa 0,0 l/m 0 min 0 min 0,0 UV-I 0 W/m 5,1 km/h (1 Bft)
26.03.2013 05:04 -3,1 C -4,3 C 69 % 1012,7 hPa 0,0 l/m 0 min 0 min 0,0 UV-I 0 W/m 7,7 km/h (2 Bft)
26.03.2013 05:06 -3,1 C -4,3 C 69 % 1012,6 hPa 0,0 l/m 0 min 0 min 0,0 UV-I 0 W/m 7,7 km/h (2 Bft)
26.03.2013 05:08 -3,2 C -4,3 C 69 % 1012,7 hPa 0,0 l/m 0 min 0 min 0,0 UV-I 0 W/m 18,0 km/h (3 Bft)
26.03.2013 05:10 -3,2 C -4,3 C 69 % 1012,7 hPa 0,0 l/m 0 min 0 min 0,0 UV-I 0 W/m 0,0 km/h (0 Bft)
26.03.2013 05:12 -3,2 C -4,3 C 69 % 1012,8 hPa 0,0 l/m 0 min 0 min 0,0 UV-I 0 W/m 5,1 km/h (1 Bft)
26.03.2013 05:14 -3,2 C -4,3 C 69 % 1012,8 hPa 0,0 l/m 0 min 0 min 0,0 UV-I 0 W/m 10,3 km/h (2 Bft)
26.03.2013 05:16 -3,2 C -4,3 C 69 % 1012,7 hPa 0,0 l/m 0 min 0 min 0,0 UV-I 0 W/m 10,3 km/h (2 Bft)
26.03.2013 05:18 -3,2 C -4,3 C 69 % 1012,7 hPa 0,0 l/m 0 min 0 min 0,0 UV-I 0 W/m 12,9 km/h (3 Bft)
26.03.2013 05:20 -3,2 C -4,3 C 69 % 1012,7 hPa 0,0 l/m 0 min 0 min 0,0 UV-I 0 W/m 15,4 km/h (3 Bft)
26.03.2013 05:22 -3,2 C -4,3 C 69 % 1012,7 hPa 0,0 l/m 0 min 0 min 0,0 UV-I 0 W/m 12,9 km/h (3 Bft)
26.03.2013 05:24 -3,2 C -4,3 C 69 % 1012,7 hPa 0,0 l/m 0 min 0 min 0,0 UV-I 0 W/m 0,0 km/h (0 Bft)
26.03.2013 05:26 -3,2 C -4,3 C 69 % 1012,7 hPa 0,0 l/m 0 min 0 min 0,0 UV-I 0 W/m 0,0 km/h (0 Bft)
26.03.2013 05:28 -3,2 C -4,3 C 69 % 1012,8 hPa 0,0 l/m 0 min 0 min 0,0 UV-I 0 W/m 2,6 km/h (1 Bft)
26.03.2013 05:30 -3,2 C -4,3 C 69 % 1012,7 hPa 0,0 l/m 0 min 0 min 0,0 UV-I 0 W/m 10,3 km/h (2 Bft)
26.03.2013 05:32 -3,2 C -4,3 C 69 % 1012,8 hPa 0,0 l/m 0 min 0 min 0,0 UV-I 0 W/m 10,3 km/h (2 Bft)
26.03.2013 05:34 -3,2 C -4,3 C 69 % 1012,8 hPa 0,0 l/m 0 min 0 min 0,0 UV-I 0 W/m 2,6 km/h (1 Bft)
26.03.2013 05:36 -3,2 C -4,3 C 69 % 1012,8 hPa 0,0 l/m 0 min 0 min 0,0 UV-I 0 W/m 5,1 km/h (1 Bft)
26.03.2013 05:38 -3,2 C -4,3 C 69 % 1012,8 hPa 0,0 l/m 0 min 0 min 0,0 UV-I 0 W/m 0,0 km/h (0 Bft)
26.03.2013 05:40 -3,3 C -4,3 C 69 % 1012,8 hPa 0,0 l/m 0 min 0 min 0,0 UV-I 0 W/m 7,7 km/h (2 Bft)
26.03.2013 05:42 -3,3 C -4,3 C 69 % 1012,8 hPa 0,0 l/m 0 min 0 min 0,0 UV-I 0 W/m 0,0 km/h (0 Bft)
26.03.2013 05:44 -3,3 C -4,3 C 70 % 1012,8 hPa 0,0 l/m 0 min 0 min 0,0 UV-I 0 W/m 0,0 km/h (0 Bft)
26.03.2013 05:46 -3,3 C -4,3 C 70 % 1012,8 hPa 0,0 l/m 0 min 0 min 0,0 UV-I 0 W/m 2,6 km/h (1 Bft)
26.03.2013 05:48 -3,3 C -4,9 C 70 % 1012,8 hPa 0,0 l/m 0 min 0 min 0,0 UV-I 0 W/m 2,6 km/h (1 Bft)
26.03.2013 05:50 -3,3 C -4,9 C 70 % 1012,8 hPa 0,0 l/m 0 min 0 min 0,0 UV-I 0 W/m 2,6 km/h (1 Bft)
26.03.2013 05:52 -3,3 C -4,9 C 70 % 1012,8 hPa 0,0 l/m 0 min 0 min 0,0 UV-I 0 W/m 0,0 km/h (0 Bft)
26.03.2013 05:54 -3,3 C -4,9 C 70 % 1012,9 hPa 0,0 l/m 0 min 0 min 0,0 UV-I 0 W/m 0,0 km/h (0 Bft)
26.03.2013 05:56 -3,4 C -4,9 C 70 % 1012,9 hPa 0,0 l/m 0 min 0 min 0,0 UV-I 0 W/m 10,3 km/h (2 Bft)
26.03.2013 05:58 -3,4 C -4,3 C 70 % 1012,9 hPa 0,0 l/m 0 min 0 min 0,0 UV-I 0 W/m 5,1 km/h (1 Bft)
26.03.2013 06:00 -3,4 C -4,9 C 70 % 1012,9 hPa 0,0 l/m 0 min 0 min 0,0 UV-I 0 W/m 5,1 km/h (1 Bft)
26.03.2013 06:02 -3,4 C -4,3 C 70 % 1012,9 hPa 0,0 l/m 0 min 0 min 0,0 UV-I 0 W/m 10,3 km/h (2 Bft)
26.03.2013 06:04 -3,4 C -4,3 C 70 % 1012,9 hPa 0,0 l/m 0 min 0 min 0,0 UV-I 0 W/m 7,7 km/h (2 Bft)
26.03.2013 06:06 -3,4 C -4,3 C 70 % 1013,0 hPa 0,0 l/m 0 min 0 min 0,0 UV-I 0 W/m 2,6 km/h (1 Bft)
26.03.2013 06:08 -3,4 C -4,3 C 70 % 1012,9 hPa 0,0 l/m 0 min 0 min 0,0 UV-I 0 W/m 5,1 km/h (1 Bft)
26.03.2013 06:10 -3,4 C -4,3 C 70 % 1013,0 hPa 0,0 l/m 0 min 0 min 0,0 UV-I 0 W/m 7,7 km/h (2 Bft)
26.03.2013 06:12 -3,4 C -4,9 C 70 % 1013,0 hPa 0,0 l/m 0 min 0 min 0,0 UV-I 0 W/m 0,0 km/h (0 Bft)
26.03.2013 06:14 -3,4 C -4,9 C 71 % 1012,9 hPa 0,0 l/m 0 min 0 min 0,0 UV-I 0 W/m 5,1 km/h (1 Bft)
26.03.2013 06:16 -3,4 C -4,9 C 70 % 1012,9 hPa 0,0 l/m 0 min 0 min 0,0 UV-I 0 W/m 2,6 km/h (1 Bft)
26.03.2013 06:18 -3,5 C -4,9 C 71 % 1013,0 hPa 0,0 l/m 0 min 0 min 0,0 UV-I 0 W/m 0,0 km/h (0 Bft)
26.03.2013 06:20 -3,5 C -4,9 C 71 % 1013,0 hPa 0,0 l/m 0 min 0 min 0,0 UV-I 0 W/m 2,6 km/h (1 Bft)
26.03.2013 06:22 -3,5 C -4,9 C 71 % 1013,0 hPa 0,0 l/m 0 min 0 min 0,0 UV-I 0 W/m 10,3 km/h (2 Bft)
26.03.2013 06:24 -3,5 C -4,9 C 71 % 1013,0 hPa 0,0 l/m 0 min 0 min 0,0 UV-I 0 W/m 2,6 km/h (1 Bft)
26.03.2013 06:26 -3,5 C -4,9 C 71 % 1013,0 hPa 0,0 l/m 0 min 0 min 0,0 UV-I 0 W/m 2,6 km/h (1 Bft)
26.03.2013 06:28 -3,5 C -4,9 C 71 % 1012,9 hPa 0,0 l/m 0 min 0 min 0,0 UV-I 5 W/m 5,1 km/h (1 Bft)
26.03.2013 06:30 -3,6 C -4,9 C 71 % 1013,0 hPa 0,0 l/m 0 min 0 min 0,0 UV-I 5 W/m 2,6 km/h (1 Bft)
26.03.2013 06:32 -3,6 C -4,9 C 71 % 1013,1 hPa 0,0 l/m 0 min 0 min 0,0 UV-I 7 W/m 0,0 km/h (0 Bft)
26.03.2013 06:34 -3,6 C -4,9 C 71 % 1013,0 hPa 0,0 l/m 0 min 0 min 0,0 UV-I 7 W/m 5,1 km/h (1 Bft)
26.03.2013 06:36 -3,6 C -4,9 C 71 % 1013,0 hPa 0,0 l/m 0 min 0 min 0,0 UV-I 9 W/m 7,7 km/h (2 Bft)
26.03.2013 06:38 -3,6 C -4,9 C 71 % 1013,1 hPa 0,0 l/m 0 min 0 min 0,0 UV-I 9 W/m 10,3 km/h (2 Bft)
26.03.2013 06:40 -3,6 C -4,9 C 71 % 1013,0 hPa 0,0 l/m 0 min 0 min 0,0 UV-I 11 W/m 7,7 km/h (2 Bft)
26.03.2013 06:42 -3,6 C -4,3 C 71 % 1013,1 hPa 0,0 l/m 0 min 0 min 0,0 UV-I 11 W/m 15,4 km/h (3 Bft)
26.03.2013 06:44 -3,6 C -4,3 C 71 % 1013,0 hPa 0,0 l/m 0 min 0 min 0,0 UV-I 12 W/m 2,6 km/h (1 Bft)
26.03.2013 06:46 -3,6 C -4,3 C 71 % 1013,1 hPa 0,0 l/m 0 min 0 min 0,0 UV-I 14 W/m 5,1 km/h (1 Bft)
26.03.2013 06:48 -3,6 C -4,3 C 71 % 1013,2 hPa 0,0 l/m 0 min 0 min 0,0 UV-I 16 W/m 2,6 km/h (1 Bft)
26.03.2013 06:50 -3,5 C -4,3 C 71 % 1013,1 hPa 0,0 l/m 0 min 0 min 0,0 UV-I 18 W/m 0,0 km/h (0 Bft)
26.03.2013 06:52 -3,6 C -4,9 C 71 % 1013,1 hPa 0,0 l/m 0 min 0 min 0,0 UV-I 18 W/m 2,6 km/h (1 Bft)
26.03.2013 06:54 -3,6 C -4,9 C 71 % 1013,1 hPa 0,0 l/m 0 min 0 min 0,0 UV-I 19 W/m 2,6 km/h (1 Bft)
26.03.2013 06:56 -3,6 C -4,3 C 71 % 1013,1 hPa 0,0 l/m 0 min 0 min 0,0 UV-I 21 W/m 0,0 km/h (0 Bft)
26.03.2013 06:58 -3,6 C -4,3 C 71 % 1013,1 hPa 0,0 l/m 0 min 0 min 0,0 UV-I 21 W/m 7,7 km/h (2 Bft)
26.03.2013 07:00 -3,6 C -4,3 C 71 % 1013,2 hPa 0,0 l/m 0 min 0 min 0,0 UV-I 21 W/m 7,7 km/h (2 Bft)
26.03.2013 07:02 -3,5 C -4,3 C 71 % 1013,2 hPa 0,0 l/m 0 min 0 min 0,0 UV-I 21 W/m 18,0 km/h (3 Bft)
26.03.2013 07:04 -3,5 C -4,3 C 71 % 1013,2 hPa 0,0 l/m 0 min 0 min 0,0 UV-I 23 W/m 7,7 km/h (2 Bft)
26.03.2013 07:06 -3,5 C -4,3 C 71 % 1013,2 hPa 0,0 l/m 0 min 0 min 0,0 UV-I 23 W/m 10,3 km/h (2 Bft)
26.03.2013 07:08 -3,5 C -4,3 C 71 % 1013,2 hPa 0,0 l/m 0 min 0 min 0,0 UV-I 26 W/m 5,1 km/h (1 Bft)
26.03.2013 07:10 -3,5 C -4,3 C 71 % 1013,2 hPa 0,0 l/m 0 min 0 min 0,0 UV-I 26 W/m 12,9 km/h (3 Bft)
26.03.2013 07:12 -3,4 C -4,3 C 71 % 1013,2 hPa 0,0 l/m 0 min 0 min 0,0 UV-I 28 W/m 2,6 km/h (1 Bft)
26.03.2013 07:14 -3,4 C -4,3 C 71 % 1013,2 hPa 0,0 l/m 0 min 0 min 0,0 UV-I 30 W/m 7,7 km/h (2 Bft)
26.03.2013 07:16 -3,4 C -4,3 C 71 % 1013,2 hPa 0,0 l/m 0 min 0 min 0,0 UV-I 30 W/m 15,4 km/h (3 Bft)
26.03.2013 07:18 -3,4 C -4,3 C 71 % 1013,2 hPa 0,0 l/m 0 min 0 min 0,0 UV-I 32 W/m 7,7 km/h (2 Bft)
26.03.2013 07:20 -3,4 C -4,3 C 71 % 1013,2 hPa 0,0 l/m 0 min 0 min 0,0 UV-I 32 W/m 15,4 km/h (3 Bft)
26.03.2013 07:22 -3,4 C -4,3 C 71 % 1013,2 hPa 0,0 l/m 0 min 0 min 0,0 UV-I 33 W/m 12,9 km/h (3 Bft)
26.03.2013 07:24 -3,4 C -4,3 C 71 % 1013,3 hPa 0,0 l/m 0 min 0 min 0,0 UV-I 33 W/m 12,9 km/h (3 Bft)
26.03.2013 07:26 -3,4 C -4,3 C 71 % 1013,3 hPa 0,0 l/m 0 min 0 min 0,0 UV-I 35 W/m 7,7 km/h (2 Bft)
26.03.2013 07:28 -3,3 C -4,3 C 71 % 1013,3 hPa 0,0 l/m 0 min 0 min 0,0 UV-I 35 W/m 5,1 km/h (1 Bft)
26.03.2013 07:30 -3,3 C -4,3 C 71 % 1013,2 hPa 0,0 l/m 0 min 0 min 0,0 UV-I 37 W/m 12,9 km/h (3 Bft)
26.03.2013 07:32 -3,3 C -4,3 C 71 % 1013,2 hPa 0,0 l/m 0 min 0 min 0,0 UV-I 37 W/m 12,9 km/h (3 Bft)
26.03.2013 07:34 -3,3 C -3,8 C 70 % 1013,3 hPa 0,0 l/m 0 min 0 min 0,0 UV-I 39 W/m 18,0 km/h (3 Bft)
26.03.2013 07:36 -3,3 C -3,8 C 71 % 1013,2 hPa 0,0 l/m 0 min 0 min 0,0 UV-I 39 W/m 10,3 km/h (2 Bft)
26.03.2013 07:38 -3,2 C -3,8 C 71 % 1013,2 hPa 0,0 l/m 0 min 0 min 0,0 UV-I 39 W/m 25,7 km/h (4 Bft)
26.03.2013 07:40 -3,2 C -3,8 C 71 % 1013,2 hPa 0,0 l/m 0 min 0 min 0,0 UV-I 40 W/m 7,7 km/h (2 Bft)
26.03.2013 07:42 -3,2 C -3,8 C 71 % 1013,2 hPa 0,0 l/m 0 min 0 min 0,0 UV-I 40 W/m 12,9 km/h (3 Bft)
26.03.2013 07:44 -3,2 C -3,8 C 70 % 1013,2 hPa 0,0 l/m 0 min 0 min 0,0 UV-I 42 W/m 10,3 km/h (2 Bft)
26.03.2013 07:46 -3,2 C -3,8 C 70 % 1013,2 hPa 0,0 l/m 0 min 0 min 0,0 UV-I 42 W/m 10,3 km/h (2 Bft)
26.03.2013 07:48 -3,1 C -3,8 C 70 % 1013,2 hPa 0,0 l/m 0 min 0 min 0,0 UV-I 42 W/m 12,9 km/h (3 Bft)
26.03.2013 07:50 -3,1 C -3,8 C 70 % 1013,2 hPa 0,0 l/m 0 min 0 min 0,0 UV-I 44 W/m 7,7 km/h (2 Bft)
26.03.2013 07:52 -3,1 C -3,8 C 70 % 1013,3 hPa 0,0 l/m 0 min 0 min 0,0 UV-I 46 W/m 0,0 km/h (0 Bft)
26.03.2013 07:54 -3,0 C -3,8 C 70 % 1013,3 hPa 0,0 l/m 0 min 0 min 0,0 UV-I 56 W/m 7,7 km/h (2 Bft)
26.03.2013 07:56 -3,0 C -3,8 C 70 % 1013,2 hPa 0,0 l/m 0 min 0 min 0,0 UV-I 98 W/m 2,6 km/h (1 Bft)
26.03.2013 07:58 -2,9 C -3,8 C 70 % 1013,2 hPa 0,0 l/m 0 min 0 min 0,0 UV-I 114 W/m 10,3 km/h (2 Bft)
26.03.2013 08:00 -2,9 C -3,2 C 70 % 1013,2 hPa 0,0 l/m 0 min 0 min 0,0 UV-I 128 W/m 7,7 km/h (2 Bft)
26.03.2013 08:02 -2,8 C -3,2 C 70 % 1013,2 hPa 0,0 l/m 2 min 0 min 0,0 UV-I 148 W/m 12,9 km/h (3 Bft)
26.03.2013 08:04 -2,8 C -3,2 C 70 % 1013,2 hPa 0,0 l/m 2 min 0 min 0,0 UV-I 156 W/m 15,4 km/h (3 Bft)
26.03.2013 08:06 -2,7 C -3,2 C 69 % 1013,2 hPa 0,0 l/m 2 min 0 min 0,0 UV-I 165 W/m 10,3 km/h (2 Bft)
26.03.2013 08:08 -2,6 C -3,2 C 69 % 1013,2 hPa 0,0 l/m 2 min 0 min 0,0 UV-I 174 W/m 18,0 km/h (3 Bft)
26.03.2013 08:10 -2,6 C -3,2 C 69 % 1013,2 hPa 0,0 l/m 2 min 0 min 0,0 UV-I 176 W/m 25,7 km/h (4 Bft)
26.03.2013 08:12 -2,5 C -3,2 C 68 % 1013,2 hPa 0,0 l/m 2 min 0 min 0,0 UV-I 181 W/m 25,7 km/h (4 Bft)
26.03.2013 08:14 -2,4 C -3,2 C 68 % 1013,2 hPa 0,0 l/m 2 min 0 min 0,0 UV-I 188 W/m 23,2 km/h (4 Bft)
26.03.2013 08:16 -2,3 C -3,2 C 68 % 1013,2 hPa 0,0 l/m 2 min 0 min 0,0 UV-I 192 W/m 28,3 km/h (4 Bft)
26.03.2013 08:18 -2,3 C -3,2 C 68 % 1013,2 hPa 0,0 l/m 2 min 0 min 0,0 UV-I 200 W/m 28,3 km/h (4 Bft)
26.03.2013 08:20 -2,3 C -3,2 C 67 % 1013,2 hPa 0,0 l/m 2 min 0 min 0,0 UV-I 202 W/m 18,0 km/h (3 Bft)
26.03.2013 08:22 -2,3 C -2,7 C 67 % 1013,2 hPa 0,0 l/m 2 min 0 min 0,0 UV-I 207 W/m 15,4 km/h (3 Bft)
26.03.2013 08:24 -2,3 C -2,7 C 67 % 1013,3 hPa 0,0 l/m 2 min 0 min 0,0 UV-I 214 W/m 7,7 km/h (2 Bft)
26.03.2013 08:26 -2,2 C -2,1 C 67 % 1013,3 hPa 0,0 l/m 2 min 0 min 0,0 UV-I 220 W/m 20,6 km/h (4 Bft)
26.03.2013 08:28 -2,2 C -2,1 C 68 % 1013,3 hPa 0,0 l/m 2 min 0 min 0,0 UV-I 225 W/m 12,9 km/h (3 Bft)
26.03.2013 08:30 -2,2 C -2,1 C 67 % 1013,3 hPa 0,0 l/m 2 min 0 min 0,0 UV-I 230 W/m 10,3 km/h (2 Bft)
26.03.2013 08:32 -2,1 C -2,1 C 67 % 1013,3 hPa 0,0 l/m 2 min 0 min 0,0 UV-I 232 W/m 12,9 km/h (3 Bft)
26.03.2013 08:34 -2,1 C -2,1 C 67 % 1013,3 hPa 0,0 l/m 2 min 0 min 0,0 UV-I 236 W/m 12,9 km/h (3 Bft)
26.03.2013 08:36 -2,1 C -2,1 C 67 % 1013,3 hPa 0,0 l/m 2 min 0 min 0,0 UV-I 237 W/m 10,3 km/h (2 Bft)
26.03.2013 08:38 -2,1 C -2,7 C 67 % 1013,3 hPa 0,0 l/m 2 min 0 min 0,0 UV-I 232 W/m 12,9 km/h (3 Bft)
26.03.2013 08:40 -2,0 C -2,7 C 67 % 1013,3 hPa 0,0 l/m 2 min 0 min 0,0 UV-I 202 W/m 10,3 km/h (2 Bft)
26.03.2013 08:42 -2,0 C -2,7 C 67 % 1013,3 hPa 0,0 l/m 0 min 0 min 0,0 UV-I 162 W/m 7,7 km/h (2 Bft)
26.03.2013 08:44 -1,9 C -2,7 C 67 % 1013,4 hPa 0,0 l/m 2 min 0 min 0,0 UV-I 220 W/m 15,4 km/h (3 Bft)
26.03.2013 08:46 -1,9 C -2,7 C 67 % 1013,4 hPa 0,0 l/m 2 min 0 min 0,0 UV-I 239 W/m 12,9 km/h (3 Bft)
26.03.2013 08:48 -1,9 C -2,7 C 67 % 1013,4 hPa 0,0 l/m 2 min 0 min 0,0 UV-I 244 W/m 10,3 km/h (2 Bft)
26.03.2013 08:50 -1,8 C -2,7 C 67 % 1013,4 hPa 0,0 l/m 2 min 0 min 0,0 UV-I 257 W/m 15,4 km/h (3 Bft)
26.03.2013 08:52 -1,8 C -2,7 C 66 % 1013,4 hPa 0,0 l/m 2 min 0 min 0,0 UV-I 260 W/m 10,3 km/h (2 Bft)
26.03.2013 08:54 -1,7 C -2,7 C 66 % 1013,4 hPa 0,0 l/m 2 min 0 min 0,0 UV-I 255 W/m 20,6 km/h (4 Bft)
26.03.2013 08:56 -1,6 C -2,7 C 66 % 1013,4 hPa 0,0 l/m 2 min 0 min 0,0 UV-I 250 W/m 15,4 km/h (3 Bft)
26.03.2013 08:58 -1,5 C -2,1 C 65 % 1013,4 hPa 0,0 l/m 2 min 0 min 0,0 UV-I 258 W/m 23,2 km/h (4 Bft)
26.03.2013 09:00 -1,4 C -2,1 C 65 % 1013,4 hPa 0,0 l/m 2 min 0 min 0,0 UV-I 278 W/m 10,3 km/h (2 Bft)
26.03.2013 09:02 -1,3 C -2,1 C 65 % 1013,3 hPa 0,0 l/m 2 min 0 min 0,0 UV-I 285 W/m 25,7 km/h (4 Bft)
26.03.2013 09:04 -1,3 C -2,1 C 64 % 1013,4 hPa 0,0 l/m 2 min 0 min 0,0 UV-I 302 W/m 23,2 km/h (4 Bft)
26.03.2013 09:06 -1,2 C -2,1 C 64 % 1013,3 hPa 0,0 l/m 2 min 0 min 0,0 UV-I 316 W/m 10,3 km/h (2 Bft)
26.03.2013 09:08 -1,1 C -2,1 C 65 % 1013,4 hPa 0,0 l/m 2 min 0 min 0,0 UV-I 325 W/m 10,3 km/h (2 Bft)
26.03.2013 09:10 -1,0 C -2,1 C 64 % 1013,3 hPa 0,0 l/m 2 min 0 min 0,0 UV-I 336 W/m 20,6 km/h (4 Bft)
26.03.2013 09:12 -0,9 C -1,6 C 64 % 1013,3 hPa 0,0 l/m 2 min 0 min 0,0 UV-I 329 W/m 18,0 km/h (3 Bft)
26.03.2013 09:14 -0,9 C -1,6 C 64 % 1013,4 hPa 0,0 l/m 2 min 0 min 0,0 UV-I 334 W/m 15,4 km/h (3 Bft)
26.03.2013 09:16 -0,8 C -1,6 C 64 % 1013,4 hPa 0,0 l/m 2 min 0 min 0,0 UV-I 341 W/m 7,7 km/h (2 Bft)
26.03.2013 09:18 -0,7 C -1,6 C 64 % 1013,4 hPa 0,0 l/m 2 min 0 min 0,0 UV-I 348 W/m 12,9 km/h (3 Bft)
26.03.2013 09:20 -0,7 C -1,6 C 63 % 1013,4 hPa 0,0 l/m 2 min 0 min 0,0 UV-I 353 W/m 10,3 km/h (2 Bft)
26.03.2013 09:22 -0,6 C -1,6 C 63 % 1013,4 hPa 0,0 l/m 2 min 0 min 0,0 UV-I 359 W/m 18,0 km/h (3 Bft)
26.03.2013 09:24 -0,6 C -1,0 C 63 % 1013,4 hPa 0,0 l/m 2 min 0 min 0,0 UV-I 360 W/m 10,3 km/h (2 Bft)
26.03.2013 09:26 -0,4 C -1,0 C 63 % 1013,4 hPa 0,0 l/m 2 min 0 min 0,0 UV-I 364 W/m 15,4 km/h (3 Bft)
26.03.2013 09:28 -0,3 C -1,0 C 63 % 1013,3 hPa 0,0 l/m 2 min 0 min 0,0 UV-I 369 W/m 5,1 km/h (1 Bft)
26.03.2013 09:30 -0,3 C -1,0 C 62 % 1013,4 hPa 0,0 l/m 2 min 0 min 0,0 UV-I 381 W/m 18,0 km/h (3 Bft)
26.03.2013 09:32 -0,2 C -0,4 C 62 % 1013,4 hPa 0,0 l/m 2 min 0 min 0,0 UV-I 378 W/m 10,3 km/h (2 Bft)
26.03.2013 09:34 -0,1 C -0,4 C 62 % 1013,4 hPa 0,0 l/m 2 min 0 min 0,0 UV-I 373 W/m 15,4 km/h (3 Bft)
26.03.2013 09:36 0,0 C -0,4 C 61 % 1013,3 hPa 0,0 l/m 2 min 0 min 0,0 UV-I 385 W/m 12,9 km/h (3 Bft)
26.03.2013 09:38 0,1 C -0,4 C 61 % 1013,4 hPa 0,0 l/m 2 min 0 min 0,0 UV-I 390 W/m 12,9 km/h (3 Bft)
26.03.2013 09:40 0,1 C -0,4 C 61 % 1013,3 hPa 0,0 l/m 2 min 0 min 0,0 UV-I 397 W/m 7,7 km/h (2 Bft)
26.03.2013 09:42 0,2 C -0,4 C 61 % 1013,4 hPa 0,0 l/m 2 min 0 min 0,0 UV-I 406 W/m 12,9 km/h (3 Bft)
26.03.2013 09:44 0,2 C 0,1 C 60 % 1013,3 hPa 0,0 l/m 2 min 0 min 0,0 UV-I 410 W/m 12,9 km/h (3 Bft)
26.03.2013 09:46 0,3 C 0,1 C 60 % 1013,4 hPa 0,0 l/m 2 min 0 min 0,0 UV-I 415 W/m 20,6 km/h (4 Bft)
26.03.2013 09:48 0,3 C 0,1 C 60 % 1013,3 hPa 0,0 l/m 2 min 0 min 0,0 UV-I 420 W/m 15,4 km/h (3 Bft)
26.03.2013 09:50 0,4 C 0,7 C 61 % 1013,4 hPa 0,0 l/m 2 min 0 min 0,5 UV-I 427 W/m 2,6 km/h (1 Bft)
26.03.2013 09:52 0,5 C 0,1 C 60 % 1013,4 hPa 0,0 l/m 2 min 0 min 0,5 UV-I 429 W/m 15,4 km/h (3 Bft)
26.03.2013 09:54 0,5 C 0,1 C 59 % 1013,4 hPa 0,0 l/m 2 min 0 min 0,5 UV-I 436 W/m 18,0 km/h (3 Bft)
26.03.2013 09:56 0,5 C 0,1 C 59 % 1013,3 hPa 0,0 l/m 2 min 0 min 0,5 UV-I 439 W/m 15,4 km/h (3 Bft)
26.03.2013 09:58 0,6 C 0,1 C 59 % 1013,4 hPa 0,0 l/m 2 min 0 min 0,5 UV-I 452 W/m 10,3 km/h (2 Bft)
26.03.2013 10:00 0,6 C 0,1 C 59 % 1013,4 hPa 0,0 l/m 2 min 0 min 0,6 UV-I 459 W/m 15,4 km/h (3 Bft)
26.03.2013 10:02 0,6 C 0,7 C 59 % 1013,3 hPa 0,0 l/m 2 min 0 min 0,6 UV-I 462 W/m 12,9 km/h (3 Bft)
26.03.2013 10:04 0,7 C 0,7 C 59 % 1013,3 hPa 0,0 l/m 2 min 0 min 0,6 UV-I 466 W/m 7,7 km/h (2 Bft)
26.03.2013 10:06 0,8 C 0,7 C 58 % 1013,3 hPa 0,0 l/m 2 min 0 min 0,6 UV-I 466 W/m 12,9 km/h (3 Bft)
26.03.2013 10:08 0,8 C 0,7 C 58 % 1013,3 hPa 0,0 l/m 2 min 0 min 0,7 UV-I 469 W/m 15,4 km/h (3 Bft)
26.03.2013 10:10 0,9 C 0,7 C 58 % 1013,4 hPa 0,0 l/m 2 min 0 min 0,7 UV-I 483 W/m 15,4 km/h (3 Bft)
26.03.2013 10:12 0,9 C 0,7 C 58 % 1013,3 hPa 0,0 l/m 2 min 0 min 0,7 UV-I 487 W/m 12,9 km/h (3 Bft)
26.03.2013 10:14 1,0 C 0,7 C 58 % 1013,3 hPa 0,0 l/m 2 min 0 min 0,7 UV-I 489 W/m 7,7 km/h (2 Bft)
26.03.2013 10:16 1,1 C 1,2 C 58 % 1013,3 hPa 0,0 l/m 2 min 0 min 0,7 UV-I 494 W/m 18,0 km/h (3 Bft)
26.03.2013 10:18 1,1 C 1,2 C 58 % 1013,3 hPa 0,0 l/m 2 min 0 min 0,7 UV-I 469 W/m 10,3 km/h (2 Bft)
26.03.2013 10:20 1,1 C 1,2 C 58 % 1013,3 hPa 0,0 l/m 2 min 0 min 0,8 UV-I 494 W/m 10,3 km/h (2 Bft)
26.03.2013 10:22 1,2 C 1,2 C 58 % 1013,2 hPa 0,0 l/m 2 min 0 min 0,8 UV-I 499 W/m 12,9 km/h (3 Bft)
26.03.2013 10:24 1,2 C 1,2 C 58 % 1013,2 hPa 0,0 l/m 2 min 0 min 0,8 UV-I 499 W/m 12,9 km/h (3 Bft)
26.03.2013 10:26 1,3 C 1,2 C 58 % 1013,1 hPa 0,0 l/m 2 min 0 min 0,8 UV-I 496 W/m 15,4 km/h (3 Bft)
26.03.2013 10:28 1,3 C 1,2 C 58 % 1013,0 hPa 0,0 l/m 2 min 0 min 0,8 UV-I 497 W/m 10,3 km/h (2 Bft)
26.03.2013 10:30 1,4 C 1,2 C 57 % 1013,0 hPa 0,0 l/m 2 min 0 min 0,9 UV-I 503 W/m 10,3 km/h (2 Bft)
26.03.2013 10:32 1,5 C 1,8 C 57 % 1013,1 hPa 0,0 l/m 2 min 0 min 0,9 UV-I 503 W/m 25,7 km/h (4 Bft)
26.03.2013 10:34 1,6 C 1,8 C 56 % 1013,1 hPa 0,0 l/m 2 min 0 min 0,9 UV-I 497 W/m 18,0 km/h (3 Bft)
26.03.2013 10:36 1,7 C 1,2 C 56 % 1013,0 hPa 0,0 l/m 2 min 0 min 0,9 UV-I 508 W/m 12,9 km/h (3 Bft)
26.03.2013 10:38 1,7 C 1,8 C 56 % 1013,1 hPa 0,0 l/m 2 min 0 min 0,9 UV-I 512 W/m 15,4 km/h (3 Bft)
26.03.2013 10:40 1,8 C 1,8 C 56 % 1013,0 hPa 0,0 l/m 2 min 0 min 1,0 UV-I 522 W/m 20,6 km/h (4 Bft)
26.03.2013 10:42 1,9 C 1,8 C 56 % 1013,0 hPa 0,0 l/m 2 min 0 min 1,0 UV-I 527 W/m 23,2 km/h (4 Bft)
26.03.2013 10:44 1,9 C 1,8 C 54 % 1013,0 hPa 0,0 l/m 2 min 0 min 1,0 UV-I 519 W/m 25,7 km/h (4 Bft)
26.03.2013 10:46 1,9 C 1,2 C 54 % 1013,0 hPa 0,0 l/m 2 min 0 min 1,0 UV-I 524 W/m 10,3 km/h (2 Bft)
26.03.2013 10:48 1,9 C 1,8 C 54 % 1013,0 hPa 0,0 l/m 2 min 0 min 1,0 UV-I 501 W/m 18,0 km/h (3 Bft)
26.03.2013 10:50 1,9 C 1,8 C 55 % 1013,0 hPa 0,0 l/m 2 min 0 min 1,0 UV-I 517 W/m 10,3 km/h (2 Bft)
26.03.2013 10:52 2,0 C 1,8 C 55 % 1013,0 hPa 0,0 l/m 2 min 0 min 1,1 UV-I 531 W/m 15,4 km/h (3 Bft)
26.03.2013 10:54 2,1 C 1,8 C 55 % 1013,0 hPa 0,0 l/m 2 min 0 min 1,1 UV-I 540 W/m 12,9 km/h (3 Bft)
26.03.2013 10:56 2,1 C 1,8 C 54 % 1013,0 hPa 0,0 l/m 2 min 0 min 1,1 UV-I 543 W/m 18,0 km/h (3 Bft)
26.03.2013 10:58 2,1 C 1,8 C 54 % 1013,0 hPa 0,0 l/m 2 min 0 min 1,1 UV-I 563 W/m 20,6 km/h (4 Bft)
26.03.2013 11:00 2,1 C 1,8 C 53 % 1013,0 hPa 0,0 l/m 2 min 0 min 1,2 UV-I 566 W/m 28,3 km/h (4 Bft)
26.03.2013 11:02 2,0 C 1,8 C 53 % 1012,9 hPa 0,0 l/m 2 min 0 min 1,2 UV-I 564 W/m 28,3 km/h (4 Bft)
26.03.2013 11:04 1,9 C 1,2 C 53 % 1013,0 hPa 0,0 l/m 2 min 0 min 1,2 UV-I 570 W/m 25,7 km/h (4 Bft)
26.03.2013 11:06 1,9 C 1,2 C 54 % 1012,9 hPa 0,0 l/m 2 min 0 min 1,2 UV-I 575 W/m 12,9 km/h (3 Bft)
26.03.2013 11:08 2,0 C 1,8 C 55 % 1013,0 hPa 0,0 l/m 2 min 0 min 1,2 UV-I 547 W/m 10,3 km/h (2 Bft)
26.03.2013 11:10 2,1 C 1,8 C 55 % 1012,9 hPa 0,0 l/m 2 min 0 min 1,2 UV-I 554 W/m 12,9 km/h (3 Bft)
26.03.2013 11:12 2,2 C 1,8 C 55 % 1013,0 hPa 0,0 l/m 2 min 0 min 1,2 UV-I 550 W/m 12,9 km/h (3 Bft)
26.03.2013 11:14 2,3 C 1,8 C 54 % 1013,0 hPa 0,0 l/m 2 min 0 min 1,2 UV-I 555 W/m 28,3 km/h (4 Bft)
26.03.2013 11:16 2,3 C 1,8 C 52 % 1012,8 hPa 0,0 l/m 2 min 0 min 1,3 UV-I 563 W/m 25,7 km/h (4 Bft)
26.03.2013 11:18 2,3 C 1,8 C 53 % 1012,9 hPa 0,0 l/m 2 min 0 min 1,2 UV-I 555 W/m 20,6 km/h (4 Bft)
26.03.2013 11:20 2,3 C 1,8 C 53 % 1012,9 hPa 0,0 l/m 2 min 0 min 1,3 UV-I 561 W/m 18,0 km/h (3 Bft)
26.03.2013 11:22 2,4 C 2,3 C 53 % 1012,9 hPa 0,0 l/m 2 min 0 min 1,3 UV-I 573 W/m 15,4 km/h (3 Bft)
26.03.2013 11:24 2,4 C 2,3 C 53 % 1012,9 hPa 0,0 l/m 2 min 0 min 1,3 UV-I 577 W/m 23,2 km/h (4 Bft)
26.03.2013 11:26 2,6 C 2,3 C 54 % 1012,9 hPa 0,0 l/m 2 min 0 min 1,3 UV-I 584 W/m 10,3 km/h (2 Bft)
26.03.2013 11:28 2,6 C 2,3 C 53 % 1012,9 hPa 0,0 l/m 2 min 0 min 1,4 UV-I 592 W/m 12,9 km/h (3 Bft)
26.03.2013 11:30 2,7 C 2,3 C 53 % 1012,9 hPa 0,0 l/m 2 min 0 min 1,4 UV-I 598 W/m 12,9 km/h (3 Bft)
26.03.2013 11:32 2,8 C 2,9 C 53 % 1012,9 hPa 0,0 l/m 2 min 0 min 1,4 UV-I 603 W/m 15,4 km/h (3 Bft)
26.03.2013 11:34 2,8 C 2,3 C 52 % 1012,7 hPa 0,0 l/m 2 min 0 min 1,4 UV-I 601 W/m 12,9 km/h (3 Bft)
26.03.2013 11:36 2,9 C 2,9 C 52 % 1012,7 hPa 0,0 l/m 2 min 0 min 1,4 UV-I 603 W/m 15,4 km/h (3 Bft)
26.03.2013 11:38 2,9 C 2,9 C 53 % 1012,7 hPa 0,0 l/m 2 min 0 min 1,4 UV-I 608 W/m 10,3 km/h (2 Bft)
26.03.2013 11:40 3,1 C 2,9 C 53 % 1012,7 hPa 0,0 l/m 2 min 0 min 1,4 UV-I 612 W/m 18,0 km/h (3 Bft)
26.03.2013 11:42 3,1 C 2,9 C 52 % 1012,6 hPa 0,0 l/m 2 min 0 min 1,5 UV-I 615 W/m 25,7 km/h (4 Bft)
26.03.2013 11:44 3,1 C 2,9 C 51 % 1012,6 hPa 0,0 l/m 2 min 0 min 1,5 UV-I 613 W/m 28,3 km/h (4 Bft)
26.03.2013 11:46 3,1 C 2,9 C 51 % 1012,6 hPa 0,0 l/m 2 min 0 min 1,5 UV-I 615 W/m 15,4 km/h (3 Bft)
26.03.2013 11:48 3,2 C 2,9 C 51 % 1012,6 hPa 0,0 l/m 2 min 0 min 1,5 UV-I 612 W/m 7,7 km/h (2 Bft)
26.03.2013 11:50 3,3 C 2,9 C 52 % 1012,6 hPa 0,0 l/m 2 min 0 min 1,5 UV-I 612 W/m 12,9 km/h (3 Bft)
26.03.2013 11:52 3,3 C 3,4 C 52 % 1012,7 hPa 0,0 l/m 2 min 0 min 1,5 UV-I 615 W/m 18,0 km/h (3 Bft)
26.03.2013 11:54 3,4 C 2,9 C 51 % 1012,6 hPa 0,0 l/m 2 min 0 min 1,5 UV-I 617 W/m 30,9 km/h (5 Bft)
26.03.2013 11:56 3,4 C 2,9 C 50 % 1012,6 hPa 0,0 l/m 2 min 0 min 1,5 UV-I 615 W/m 28,3 km/h (4 Bft)
26.03.2013 11:58 3,4 C 2,9 C 50 % 1012,6 hPa 0,0 l/m 2 min 0 min 1,5 UV-I 612 W/m 12,9 km/h (3 Bft)
26.03.2013 12:00 3,4 C 2,9 C 51 % 1012,5 hPa 0,0 l/m 2 min 0 min 1,5 UV-I 591 W/m 10,3 km/h (2 Bft)
26.03.2013 12:02 3,5 C 3,4 C 51 % 1012,6 hPa 0,0 l/m 2 min 0 min 1,5 UV-I 612 W/m 12,9 km/h (3 Bft)
26.03.2013 12:04 3,6 C 3,4 C 51 % 1012,5 hPa 0,0 l/m 2 min 0 min 1,5 UV-I 613 W/m 12,9 km/h (3 Bft)
26.03.2013 12:06 3,7 C 2,9 C 49 % 1012,5 hPa 0,0 l/m 2 min 0 min 1,5 UV-I 622 W/m 28,3 km/h (4 Bft)
26.03.2013 12:08 3,7 C 3,4 C 49 % 1012,4 hPa 0,0 l/m 2 min 0 min 1,5 UV-I 629 W/m 10,3 km/h (2 Bft)
26.03.2013 12:10 3,7 C 3,4 C 49 % 1012,4 hPa 0,0 l/m 2 min 0 min 1,5 UV-I 615 W/m 23,2 km/h (4 Bft)
26.03.2013 12:12 3,8 C 3,4 C 50 % 1012,4 hPa 0,0 l/m 2 min 0 min 1,5 UV-I 594 W/m 12,9 km/h (3 Bft)
26.03.2013 12:14 3,8 C 3,4 C 49 % 1012,3 hPa 0,0 l/m 2 min 0 min 1,5 UV-I 580 W/m 12,9 km/h (3 Bft)
26.03.2013 12:16 3,9 C 3,4 C 49 % 1012,4 hPa 0,0 l/m 2 min 0 min 1,5 UV-I 606 W/m 15,4 km/h (3 Bft)
26.03.2013 12:18 3,9 C 3,4 C 49 % 1012,4 hPa 0,0 l/m 2 min 0 min 1,5 UV-I 596 W/m 12,9 km/h (3 Bft)
26.03.2013 12:20 3,9 C 3,4 C 49 % 1012,4 hPa 0,0 l/m 2 min 0 min 1,6 UV-I 633 W/m 23,2 km/h (4 Bft)
26.03.2013 12:22 3,9 C 3,4 C 48 % 1012,4 hPa 0,0 l/m 2 min 0 min 1,6 UV-I 636 W/m 23,2 km/h (4 Bft)
26.03.2013 12:24 3,9 C 2,9 C 48 % 1012,4 hPa 0,0 l/m 2 min 0 min 1,6 UV-I 645 W/m 15,4 km/h (3 Bft)
26.03.2013 12:26 3,9 C 2,9 C 49 % 1012,4 hPa 0,0 l/m 2 min 0 min 1,6 UV-I 643 W/m 20,6 km/h (4 Bft)
26.03.2013 12:28 3,9 C 3,4 C 49 % 1012,3 hPa 0,0 l/m 2 min 0 min 1,6 UV-I 649 W/m 7,7 km/h (2 Bft)
26.03.2013 12:30 4,1 C 3,4 C 50 % 1012,2 hPa 0,0 l/m 2 min 0 min 1,6 UV-I 647 W/m 18,0 km/h (3 Bft)
26.03.2013 12:32 4,1 C 3,4 C 49 % 1012,3 hPa 0,0 l/m 2 min 0 min 1,6 UV-I 643 W/m 18,0 km/h (3 Bft)
26.03.2013 12:34 4,2 C 3,4 C 49 % 1012,2 hPa 0,0 l/m 2 min 0 min 1,6 UV-I 642 W/m 12,9 km/h (3 Bft)
26.03.2013 12:36 4,3 C 3,4 C 48 % 1012,2 hPa 0,0 l/m 2 min 0 min 1,6 UV-I 638 W/m 28,3 km/h (4 Bft)
26.03.2013 12:38 4,3 C 3,4 C 48 % 1012,2 hPa 0,0 l/m 2 min 0 min 1,6 UV-I 645 W/m 23,2 km/h (4 Bft)
26.03.2013 12:40 4,3 C 3,4 C 48 % 1012,3 hPa 0,0 l/m 2 min 0 min 1,6 UV-I 647 W/m 28,3 km/h (4 Bft)
26.03.2013 12:42 4,3 C 3,4 C 48 % 1012,3 hPa 0,0 l/m 2 min 0 min 1,6 UV-I 645 W/m 18,0 km/h (3 Bft)
26.03.2013 12:44 4,3 C 4,0 C 48 % 1012,3 hPa 0,0 l/m 2 min 0 min 1,6 UV-I 629 W/m 18,0 km/h (3 Bft)
26.03.2013 12:46 4,3 C 3,4 C 48 % 1012,2 hPa 0,0 l/m 2 min 0 min 1,6 UV-I 608 W/m 20,6 km/h (4 Bft)
26.03.2013 12:48 4,4 C 4,0 C 48 % 1012,2 hPa 0,0 l/m 2 min 0 min 1,6 UV-I 643 W/m 10,3 km/h (2 Bft)
26.03.2013 12:50 4,4 C 3,4 C 48 % 1012,2 hPa 0,0 l/m 2 min 0 min 1,6 UV-I 642 W/m 15,4 km/h (3 Bft)
26.03.2013 12:52 4,5 C 4,0 C 48 % 1012,2 hPa 0,0 l/m 2 min 0 min 1,6 UV-I 636 W/m 12,9 km/h (3 Bft)
26.03.2013 12:54 4,5 C 4,0 C 47 % 1012,1 hPa 0,0 l/m 2 min 0 min 1,6 UV-I 645 W/m 25,7 km/h (4 Bft)
26.03.2013 12:56 4,6 C 4,0 C 48 % 1012,2 hPa 0,0 l/m 2 min 0 min 1,6 UV-I 650 W/m 12,9 km/h (3 Bft)
26.03.2013 12:58 4,7 C 4,0 C 47 % 1012,1 hPa 0,0 l/m 2 min 0 min 1,6 UV-I 649 W/m 12,9 km/h (3 Bft)
26.03.2013 13:00 4,8 C 4,6 C 48 % 1012,1 hPa 0,0 l/m 2 min 0 min 1,6 UV-I 647 W/m 12,9 km/h (3 Bft)
26.03.2013 13:02 4,8 C 4,0 C 47 % 1012,2 hPa 0,0 l/m 2 min 0 min 1,6 UV-I 647 W/m 15,4 km/h (3 Bft)
26.03.2013 13:04 4,9 C 4,0 C 47 % 1012,1 hPa 0,0 l/m 2 min 0 min 1,6 UV-I 650 W/m 12,9 km/h (3 Bft)
26.03.2013 13:06 4,9 C 4,0 C 47 % 1012,1 hPa 0,0 l/m 2 min 0 min 1,6 UV-I 652 W/m 28,3 km/h (4 Bft)
26.03.2013 13:08 5,0 C 4,0 C 47 % 1012,1 hPa 0,0 l/m 2 min 0 min 1,6 UV-I 654 W/m 10,3 km/h (2 Bft)
26.03.2013 13:10 5,1 C 4,0 C 47 % 1012,0 hPa 0,0 l/m 2 min 0 min 1,6 UV-I 656 W/m 18,0 km/h (3 Bft)
26.03.2013 13:12 5,1 C 4,6 C 47 % 1012,0 hPa 0,0 l/m 2 min 0 min 1,6 UV-I 649 W/m 12,9 km/h (3 Bft)
26.03.2013 13:14 5,2 C 4,6 C 47 % 1012,1 hPa 0,0 l/m 2 min 0 min 1,6 UV-I 650 W/m 15,4 km/h (3 Bft)
26.03.2013 13:16 5,2 C 4,6 C 47 % 1012,0 hPa 0,0 l/m 2 min 0 min 1,6 UV-I 650 W/m 12,9 km/h (3 Bft)
26.03.2013 13:18 5,2 C 4,6 C 46 % 1011,9 hPa 0,0 l/m 2 min 0 min 1,6 UV-I 652 W/m 20,6 km/h (4 Bft)
26.03.2013 13:20 5,2 C 4,6 C 46 % 1012,0 hPa 0,0 l/m 2 min 0 min 1,6 UV-I 650 W/m 10,3 km/h (2 Bft)
26.03.2013 13:22 5,2 C 4,6 C 45 % 1011,9 hPa 0,0 l/m 2 min 0 min 1,6 UV-I 652 W/m 18,0 km/h (3 Bft)
26.03.2013 13:24 5,2 C 4,6 C 45 % 1012,0 hPa 0,0 l/m 2 min 0 min 1,6 UV-I 650 W/m 12,9 km/h (3 Bft)
26.03.2013 13:26 5,2 C 4,6 C 46 % 1012,0 hPa 0,0 l/m 2 min 0 min 1,6 UV-I 652 W/m 12,9 km/h (3 Bft)
26.03.2013 13:28 5,1 C 4,0 C 46 % 1011,8 hPa 0,0 l/m 2 min 0 min 1,6 UV-I 649 W/m 33,5 km/h (5 Bft)
26.03.2013 13:30 5,1 C 4,0 C 46 % 1011,8 hPa 0,0 l/m 2 min 0 min 1,6 UV-I 649 W/m 20,6 km/h (4 Bft)
26.03.2013 13:32 5,1 C 4,6 C 46 % 1011,8 hPa 0,0 l/m 2 min 0 min 1,6 UV-I 650 W/m 12,9 km/h (3 Bft)
26.03.2013 13:34 5,1 C 4,6 C 46 % 1011,8 hPa 0,0 l/m 2 min 0 min 1,6 UV-I 652 W/m 18,0 km/h (3 Bft)
26.03.2013 13:36 5,2 C 4,6 C 46 % 1011,9 hPa 0,0 l/m 2 min 0 min 1,5 UV-I 629 W/m 18,0 km/h (3 Bft)
26.03.2013 13:38 5,2 C 4,6 C 46 % 1011,8 hPa 0,0 l/m 2 min 0 min 1,6 UV-I 650 W/m 18,0 km/h (3 Bft)
26.03.2013 13:40 5,2 C 4,6 C 46 % 1011,8 hPa 0,0 l/m 2 min 0 min 1,5 UV-I 650 W/m 18,0 km/h (3 Bft)
26.03.2013 13:42 5,3 C 4,6 C 46 % 1011,8 hPa 0,0 l/m 2 min 0 min 1,5 UV-I 643 W/m 15,4 km/h (3 Bft)
26.03.2013 13:44 5,3 C 4,6 C 45 % 1011,7 hPa 0,0 l/m 2 min 0 min 1,5 UV-I 642 W/m 20,6 km/h (4 Bft)
26.03.2013 13:46 5,3 C 4,6 C 45 % 1011,7 hPa 0,0 l/m 2 min 0 min 1,5 UV-I 631 W/m 15,4 km/h (3 Bft)
26.03.2013 13:48 5,3 C 4,6 C 46 % 1011,7 hPa 0,0 l/m 2 min 0 min 1,5 UV-I 631 W/m 12,9 km/h (3 Bft)
26.03.2013 13:50 5,4 C 4,6 C 45 % 1011,8 hPa 0,0 l/m 2 min 0 min 1,4 UV-I 615 W/m 15,4 km/h (3 Bft)
26.03.2013 13:52 5,4 C 4,6 C 45 % 1011,8 hPa 0,0 l/m 2 min 0 min 1,5 UV-I 640 W/m 12,9 km/h (3 Bft)
26.03.2013 13:54 5,4 C 4,6 C 45 % 1011,8 hPa 0,0 l/m 2 min 0 min 1,4 UV-I 636 W/m 15,4 km/h (3 Bft)
26.03.2013 13:56 5,4 C 4,6 C 45 % 1011,8 hPa 0,0 l/m 2 min 0 min 1,4 UV-I 635 W/m 23,2 km/h (4 Bft)
26.03.2013 13:58 5,4 C 4,6 C 45 % 1011,7 hPa 0,0 l/m 2 min 0 min 1,4 UV-I 636 W/m 15,4 km/h (3 Bft)
26.03.2013 14:00 5,4 C 4,6 C 46 % 1011,7 hPa 0,0 l/m 2 min 0 min 1,4 UV-I 633 W/m 15,4 km/h (3 Bft)
26.03.2013 14:02 5,5 C 4,6 C 44 % 1011,5 hPa 0,0 l/m 2 min 0 min 1,3 UV-I 584 W/m 25,7 km/h (4 Bft)
26.03.2013 14:04 5,4 C 4,6 C 45 % 1011,5 hPa 0,0 l/m 2 min 0 min 1,3 UV-I 615 W/m 15,4 km/h (3 Bft)
26.03.2013 14:06 5,4 C 4,6 C 46 % 1011,6 hPa 0,0 l/m 2 min 0 min 1,3 UV-I 612 W/m 12,9 km/h (3 Bft)
26.03.2013 14:08 5,4 C 4,6 C 45 % 1011,5 hPa 0,0 l/m 2 min 0 min 1,3 UV-I 608 W/m 15,4 km/h (3 Bft)
26.03.2013 14:10 5,4 C 4,6 C 45 % 1011,5 hPa 0,0 l/m 2 min 0 min 1,3 UV-I 584 W/m 10,3 km/h (2 Bft)
26.03.2013 14:12 5,6 C 4,6 C 46 % 1011,5 hPa 0,0 l/m 2 min 0 min 1,3 UV-I 594 W/m 15,4 km/h (3 Bft)
26.03.2013 14:14 5,6 C 5,1 C 46 % 1011,4 hPa 0,0 l/m 2 min 0 min 1,3 UV-I 596 W/m 15,4 km/h (3 Bft)
26.03.2013 14:16 5,7 C 5,1 C 46 % 1011,5 hPa 0,0 l/m 2 min 0 min 1,2 UV-I 557 W/m 12,9 km/h (3 Bft)
26.03.2013 14:18 5,8 C 5,1 C 46 % 1011,5 hPa 0,0 l/m 2 min 0 min 1,1 UV-I 538 W/m 15,4 km/h (3 Bft)
26.03.2013 14:20 5,8 C 5,1 C 45 % 1011,5 hPa 0,0 l/m 2 min 0 min 1,1 UV-I 547 W/m 15,4 km/h (3 Bft)
26.03.2013 14:22 5,8 C 4,6 C 44 % 1011,5 hPa 0,0 l/m 2 min 0 min 1,2 UV-I 566 W/m 15,4 km/h (3 Bft)
26.03.2013 14:24 5,7 C 4,6 C 45 % 1011,4 hPa 0,0 l/m 2 min 0 min 1,2 UV-I 568 W/m 18,0 km/h (3 Bft)
26.03.2013 14:26 5,7 C 4,6 C 45 % 1011,5 hPa 0,0 l/m 2 min 0 min 1,2 UV-I 589 W/m 15,4 km/h (3 Bft)
26.03.2013 14:28 5,7 C 4,6 C 46 % 1011,4 hPa 0,0 l/m 2 min 0 min 1,2 UV-I 603 W/m 15,4 km/h (3 Bft)
26.03.2013 14:30 5,7 C 4,6 C 46 % 1011,4 hPa 0,0 l/m 2 min 0 min 1,2 UV-I 601 W/m 23,2 km/h (4 Bft)
26.03.2013 14:32 5,7 C 5,1 C 45 % 1011,3 hPa 0,0 l/m 2 min 0 min 1,1 UV-I 592 W/m 15,4 km/h (3 Bft)
26.03.2013 14:34 5,7 C 5,1 C 46 % 1011,3 hPa 0,0 l/m 2 min 0 min 1,1 UV-I 587 W/m 15,4 km/h (3 Bft)
26.03.2013 14:36 5,7 C 5,1 C 46 % 1011,4 hPa 0,0 l/m 2 min 0 min 1,1 UV-I 584 W/m 15,4 km/h (3 Bft)
26.03.2013 14:38 5,8 C 5,1 C 44 % 1011,4 hPa 0,0 l/m 2 min 0 min 1,1 UV-I 570 W/m 18,0 km/h (3 Bft)
26.03.2013 14:40 5,8 C 5,1 C 45 % 1011,4 hPa 0,0 l/m 2 min 0 min 1,1 UV-I 557 W/m 15,4 km/h (3 Bft)
26.03.2013 14:42 5,9 C 5,1 C 46 % 1011,4 hPa 0,0 l/m 2 min 0 min 1,0 UV-I 563 W/m 12,9 km/h (3 Bft)
26.03.2013 14:44 6,0 C 5,1 C 44 % 1011,4 hPa 0,0 l/m 2 min 0 min 1,0 UV-I 547 W/m 12,9 km/h (3 Bft)
26.03.2013 14:46 6,0 C 5,1 C 44 % 1011,4 hPa 0,0 l/m 2 min 0 min 1,0 UV-I 552 W/m 12,9 km/h (3 Bft)
26.03.2013 14:48 6,0 C 5,1 C 45 % 1011,4 hPa 0,0 l/m 2 min 0 min 1,0 UV-I 557 W/m 20,6 km/h (4 Bft)
26.03.2013 14:50 5,9 C 5,1 C 45 % 1011,3 hPa 0,0 l/m 2 min 0 min 0,9 UV-I 541 W/m 12,9 km/h (3 Bft)
26.03.2013 14:52 6,0 C 5,1 C 45 % 1011,3 hPa 0,0 l/m 2 min 0 min 0,9 UV-I 519 W/m 23,2 km/h (4 Bft)
26.03.2013 14:54 5,9 C 5,1 C 44 % 1011,2 hPa 0,0 l/m 2 min 0 min 0,8 UV-I 506 W/m 28,3 km/h (4 Bft)
26.03.2013 14:56 5,8 C 5,1 C 44 % 1011,2 hPa 0,0 l/m 2 min 0 min 0,9 UV-I 520 W/m 12,9 km/h (3 Bft)
26.03.2013 14:58 5,9 C 5,1 C 46 % 1011,2 hPa 0,0 l/m 2 min 0 min 0,8 UV-I 497 W/m 10,3 km/h (2 Bft)
26.03.2013 15:00 6,0 C 5,7 C 46 % 1011,2 hPa 0,0 l/m 2 min 0 min 0,8 UV-I 515 W/m 12,9 km/h (3 Bft)
26.03.2013 15:02 6,1 C 5,7 C 46 % 1011,3 hPa 0,0 l/m 2 min 0 min 0,8 UV-I 506 W/m 18,0 km/h (3 Bft)
26.03.2013 15:04 6,2 C 5,7 C 46 % 1011,2 hPa 0,0 l/m 2 min 0 min 0,8 UV-I 508 W/m 12,9 km/h (3 Bft)
26.03.2013 15:06 6,2 C 5,7 C 45 % 1011,2 hPa 0,0 l/m 2 min 0 min 0,8 UV-I 499 W/m 25,7 km/h (4 Bft)
26.03.2013 15:08 6,2 C 5,7 C 44 % 1011,2 hPa 0,0 l/m 2 min 0 min 0,7 UV-I 497 W/m 15,4 km/h (3 Bft)
26.03.2013 15:10 6,2 C 5,7 C 45 % 1011,2 hPa 0,0 l/m 2 min 0 min 0,7 UV-I 513 W/m 10,3 km/h (2 Bft)
26.03.2013 15:12 6,2 C 5,7 C 44 % 1011,0 hPa 0,0 l/m 2 min 0 min 0,7 UV-I 512 W/m 15,4 km/h (3 Bft)
26.03.2013 15:14 6,2 C 6,2 C 45 % 1011,0 hPa 0,0 l/m 2 min 0 min 0,7 UV-I 510 W/m 18,0 km/h (3 Bft)
26.03.2013 15:16 6,2 C 5,7 C 45 % 1011,0 hPa 0,0 l/m 2 min 0 min 0,7 UV-I 517 W/m 12,9 km/h (3 Bft)
26.03.2013 15:18 6,2 C 5,7 C 44 % 1011,0 hPa 0,0 l/m 2 min 0 min 0,7 UV-I 515 W/m 23,2 km/h (4 Bft)
26.03.2013 15:20 6,1 C 6,2 C 44 % 1011,0 hPa 0,0 l/m 2 min 0 min 0,7 UV-I 503 W/m 12,9 km/h (3 Bft)
26.03.2013 15:22 6,1 C 5,7 C 45 % 1011,0 hPa 0,0 l/m 2 min 0 min 0,6 UV-I 506 W/m 12,9 km/h (3 Bft)
26.03.2013 15:24 6,2 C 6,2 C 45 % 1011,0 hPa 0,0 l/m 2 min 0 min 0,6 UV-I 494 W/m 15,4 km/h (3 Bft)
26.03.2013 15:26 6,2 C 6,2 C 45 % 1011,0 hPa 0,0 l/m 2 min 0 min 0,6 UV-I 494 W/m 20,6 km/h (4 Bft)
26.03.2013 15:28 6,2 C 6,8 C 44 % 1011,0 hPa 0,0 l/m 2 min 0 min 0,6 UV-I 496 W/m 20,6 km/h (4 Bft)
26.03.2013 15:30 6,2 C 7,9 C 45 % 1011,0 hPa 0,0 l/m 2 min 0 min 0,6 UV-I 492 W/m 10,3 km/h (2 Bft)
26.03.2013 15:32 6,3 C 9,0 C 46 % 1011,0 hPa 0,0 l/m 2 min 0 min 0,5 UV-I 487 W/m 7,7 km/h (2 Bft)
26.03.2013 15:34 6,3 C 9,6 C 45 % 1011,0 hPa 0,0 l/m 2 min 0 min 0,5 UV-I 485 W/m 12,9 km/h (3 Bft)
26.03.2013 15:36 6,4 C 9,6 C 45 % 1011,0 hPa 0,0 l/m 2 min 0 min 0,5 UV-I 482 W/m 20,6 km/h (4 Bft)
26.03.2013 15:38 6,4 C 10,1 C 45 % 1011,0 hPa 0,0 l/m 2 min 0 min 0,5 UV-I 473 W/m 12,9 km/h (3 Bft)
26.03.2013 15:40 6,5 C 10,1 C 45 % 1011,0 hPa 0,0 l/m 2 min 0 min 0,0 UV-I 469 W/m 12,9 km/h (3 Bft)
26.03.2013 15:42 6,5 C 9,6 C 45 % 1011,1 hPa 0,0 l/m 2 min 0 min 0,0 UV-I 464 W/m 15,4 km/h (3 Bft)
26.03.2013 15:44 6,4 C 9,6 C 44 % 1011,1 hPa 0,0 l/m 2 min 0 min 0,0 UV-I 459 W/m 23,2 km/h (4 Bft)
26.03.2013 15:46 6,3 C 10,1 C 44 % 1011,1 hPa 0,0 l/m 2 min 0 min 0,0 UV-I 455 W/m 15,4 km/h (3 Bft)
26.03.2013 15:48 6,3 C 9,6 C 45 % 1011,1 hPa 0,0 l/m 2 min 0 min 0,0 UV-I 452 W/m 15,4 km/h (3 Bft)
26.03.2013 15:50 6,2 C 9,6 C 44 % 1011,0 hPa 0,0 l/m 2 min 0 min 0,0 UV-I 448 W/m 20,6 km/h (4 Bft)
26.03.2013 15:52 6,2 C 9,6 C 45 % 1011,1 hPa 0,0 l/m 2 min 0 min 0,0 UV-I 445 W/m 15,4 km/h (3 Bft)
26.03.2013 15:54 6,2 C 9,6 C 44 % 1011,1 hPa 0,0 l/m 2 min 0 min 0,0 UV-I 434 W/m 15,4 km/h (3 Bft)
26.03.2013 15:56 6,1 C 10,1 C 44 % 1011,1 hPa 0,0 l/m 2 min 0 min 0,0 UV-I 434 W/m 12,9 km/h (3 Bft)
26.03.2013 15:58 6,1 C 9,6 C 45 % 1011,1 hPa 0,0 l/m 2 min 0 min 0,0 UV-I 429 W/m 15,4 km/h (3 Bft)
26.03.2013 16:00 6,1 C 9,0 C 45 % 1011,2 hPa 0,0 l/m 2 min 0 min 0,0 UV-I 429 W/m 10,3 km/h (2 Bft)
26.03.2013 16:02 6,2 C 7,9 C 45 % 1011,1 hPa 0,0 l/m 2 min 0 min 0,0 UV-I 422 W/m 23,2 km/h (4 Bft)
26.03.2013 16:04 6,1 C 7,3 C 44 % 1011,2 hPa 0,0 l/m 2 min 0 min 0,0 UV-I 415 W/m 15,4 km/h (3 Bft)
26.03.2013 16:06 6,1 C 6,8 C 44 % 1011,1 hPa 0,0 l/m 2 min 0 min 0,0 UV-I 406 W/m 23,2 km/h (4 Bft)
26.03.2013 16:08 6,0 C 6,2 C 44 % 1011,1 hPa 0,0 l/m 2 min 0 min 0,0 UV-I 390 W/m 18,0 km/h (3 Bft)
26.03.2013 16:10 5,9 C 6,2 C 44 % 1011,1 hPa 0,0 l/m 2 min 0 min 0,0 UV-I 383 W/m 20,6 km/h (4 Bft)
26.03.2013 16:12 5,9 C 5,7 C 44 % 1011,2 hPa 0,0 l/m 2 min 0 min 0,0 UV-I 359 W/m 10,3 km/h (2 Bft)
26.03.2013 16:14 5,9 C 5,7 C 44 % 1011,1 hPa 0,0 l/m 2 min 0 min 0,0 UV-I 364 W/m 20,6 km/h (4 Bft)
26.03.2013 16:16 5,8 C 5,7 C 45 % 1011,1 hPa 0,0 l/m 2 min 0 min 0,0 UV-I 369 W/m 10,3 km/h (2 Bft)
26.03.2013 16:18 5,8 C 5,1 C 45 % 1011,1 hPa 0,0 l/m 2 min 0 min 0,0 UV-I 364 W/m 15,4 km/h (3 Bft)
26.03.2013 16:20 5,8 C 5,1 C 44 % 1011,1 hPa 0,0 l/m 2 min 0 min 0,0 UV-I 374 W/m 10,3 km/h (2 Bft)
26.03.2013 16:22 5,8 C 5,1 C 45 % 1011,1 hPa 0,0 l/m 2 min 0 min 0,0 UV-I 373 W/m 15,4 km/h (3 Bft)
26.03.2013 16:24 5,7 C 5,1 C 45 % 1011,0 hPa 0,0 l/m 2 min 0 min 0,0 UV-I 371 W/m 12,9 km/h (3 Bft)
26.03.2013 16:26 5,7 C 5,1 C 45 % 1011,1 hPa 0,0 l/m 2 min 0 min 0,0 UV-I 366 W/m 23,2 km/h (4 Bft)
26.03.2013 16:28 5,7 C 4,6 C 45 % 1010,9 hPa 0,0 l/m 2 min 0 min 0,0 UV-I 360 W/m 15,4 km/h (3 Bft)
26.03.2013 16:30 5,7 C 5,1 C 45 % 1011,0 hPa 0,0 l/m 2 min 0 min 0,0 UV-I 355 W/m 15,4 km/h (3 Bft)
26.03.2013 16:32 5,7 C 4,6 C 45 % 1010,9 hPa 0,0 l/m 2 min 0 min 0,0 UV-I 350 W/m 18,0 km/h (3 Bft)
26.03.2013 16:34 5,7 C 5,1 C 46 % 1011,0 hPa 0,0 l/m 2 min 0 min 0,0 UV-I 346 W/m 15,4 km/h (3 Bft)
26.03.2013 16:36 5,7 C 5,1 C 46 % 1011,0 hPa 0,0 l/m 2 min 0 min 0,0 UV-I 343 W/m 12,9 km/h (3 Bft)
26.03.2013 16:38 5,7 C 5,1 C 45 % 1011,0 hPa 0,0 l/m 2 min 0 min 0,0 UV-I 336 W/m 10,3 km/h (2 Bft)
26.03.2013 16:40 5,7 C 4,6 C 45 % 1011,0 hPa 0,0 l/m 2 min 0 min 0,0 UV-I 332 W/m 18,0 km/h (3 Bft)
26.03.2013 16:42 5,7 C 4,6 C 45 % 1010,9 hPa 0,0 l/m 2 min 0 min 0,0 UV-I 327 W/m 15,4 km/h (3 Bft)
26.03.2013 16:44 5,7 C 4,6 C 46 % 1011,1 hPa 0,0 l/m 2 min 0 min 0,0 UV-I 323 W/m 12,9 km/h (3 Bft)
26.03.2013 16:46 5,7 C 4,6 C 46 % 1011,0 hPa 0,0 l/m 2 min 0 min 0,0 UV-I 318 W/m 10,3 km/h (2 Bft)
26.03.2013 16:48 5,7 C 4,6 C 45 % 1011,0 hPa 0,0 l/m 2 min 0 min 0,0 UV-I 311 W/m 15,4 km/h (3 Bft)
26.03.2013 16:50 5,7 C 4,6 C 45 % 1011,0 hPa 0,0 l/m 2 min 0 min 0,0 UV-I 308 W/m 7,7 km/h (2 Bft)
26.03.2013 16:52 5,7 C 4,6 C 46 % 1010,9 hPa 0,0 l/m 2 min 0 min 0,0 UV-I 302 W/m 7,7 km/h (2 Bft)
26.03.2013 16:54 5,7 C 4,6 C 46 % 1010,8 hPa 0,0 l/m 2 min 0 min 0,0 UV-I 295 W/m 7,7 km/h (2 Bft)
26.03.2013 16:56 5,7 C 4,6 C 46 % 1010,9 hPa 0,0 l/m 2 min 0 min 0,0 UV-I 290 W/m 15,4 km/h (3 Bft)
26.03.2013 16:58 5,7 C 4,6 C 45 % 1010,8 hPa 0,0 l/m 2 min 0 min 0,0 UV-I 269 W/m 20,6 km/h (4 Bft)
26.03.2013 17:00 5,6 C 4,6 C 45 % 1010,8 hPa 0,0 l/m 2 min 0 min 0,0 UV-I 276 W/m 15,4 km/h (3 Bft)
26.03.2013 17:02 5,6 C 4,0 C 46 % 1010,8 hPa 0,0 l/m 2 min 0 min 0,0 UV-I 274 W/m 20,6 km/h (4 Bft)
26.03.2013 17:04 5,5 C 4,0 C 46 % 1010,8 hPa 0,0 l/m 2 min 0 min 0,0 UV-I 269 W/m 15,4 km/h (3 Bft)
26.03.2013 17:06 5,5 C 4,0 C 46 % 1010,8 hPa 0,0 l/m 2 min 0 min 0,0 UV-I 262 W/m 18,0 km/h (3 Bft)
26.03.2013 17:08 5,4 C 4,0 C 46 % 1010,8 hPa 0,0 l/m 2 min 0 min 0,0 UV-I 257 W/m 12,9 km/h (3 Bft)
26.03.2013 17:10 5,4 C 4,0 C 45 % 1010,8 hPa 0,0 l/m 2 min 0 min 0,0 UV-I 253 W/m 15,4 km/h (3 Bft)
26.03.2013 17:12 5,3 C 4,0 C 46 % 1010,8 hPa 0,0 l/m 2 min 0 min 0,0 UV-I 248 W/m 15,4 km/h (3 Bft)
26.03.2013 17:14 5,3 C 4,0 C 46 % 1010,7 hPa 0,0 l/m 2 min 0 min 0,0 UV-I 241 W/m 12,9 km/h (3 Bft)
26.03.2013 17:16 5,2 C 4,0 C 46 % 1010,7 hPa 0,0 l/m 2 min 0 min 0,0 UV-I 227 W/m 15,4 km/h (3 Bft)
26.03.2013 17:18 5,2 C 4,0 C 46 % 1010,8 hPa 0,0 l/m 2 min 0 min 0,0 UV-I 230 W/m 12,9 km/h (3 Bft)
26.03.2013 17:20 5,2 C 4,0 C 46 % 1010,8 hPa 0,0 l/m 2 min 0 min 0,0 UV-I 225 W/m 12,9 km/h (3 Bft)
26.03.2013 17:22 5,1 C 4,0 C 45 % 1010,8 hPa 0,0 l/m 2 min 0 min 0,0 UV-I 221 W/m 18,0 km/h (3 Bft)
26.03.2013 17:24 5,1 C 4,0 C 46 % 1010,8 hPa 0,0 l/m 2 min 0 min 0,0 UV-I 213 W/m 7,7 km/h (2 Bft)
26.03.2013 17:26 5,1 C 4,0 C 46 % 1010,8 hPa 0,0 l/m 2 min 0 min 0,0 UV-I 209 W/m 12,9 km/h (3 Bft)
26.03.2013 17:28 5,1 C 3,4 C 47 % 1010,8 hPa 0,0 l/m 2 min 0 min 0,0 UV-I 206 W/m 10,3 km/h (2 Bft)
26.03.2013 17:30 5,1 C 3,4 C 46 % 1010,8 hPa 0,0 l/m 2 min 0 min 0,0 UV-I 199 W/m 15,4 km/h (3 Bft)
26.03.2013 17:32 5,0 C 3,4 C 47 % 1010,8 hPa 0,0 l/m 2 min 0 min 0,0 UV-I 193 W/m 15,4 km/h (3 Bft)
26.03.2013 17:34 4,9 C 3,4 C 47 % 1010,8 hPa 0,0 l/m 2 min 0 min 0,0 UV-I 188 W/m 10,3 km/h (2 Bft)
26.03.2013 17:36 4,8 C 3,4 C 46 % 1010,8 hPa 0,0 l/m 2 min 0 min 0,0 UV-I 169 W/m 15,4 km/h (3 Bft)
26.03.2013 17:38 4,8 C 2,9 C 47 % 1010,8 hPa 0,0 l/m 2 min 0 min 0,0 UV-I 158 W/m 10,3 km/h (2 Bft)
26.03.2013 17:40 4,7 C 3,4 C 48 % 1010,8 hPa 0,0 l/m 2 min 0 min 0,0 UV-I 169 W/m 12,9 km/h (3 Bft)
26.03.2013 17:42 4,7 C 2,9 C 47 % 1010,9 hPa 0,0 l/m 2 min 0 min 0,0 UV-I 158 W/m 12,9 km/h (3 Bft)
26.03.2013 17:44 4,7 C 2,9 C 47 % 1010,8 hPa 0,0 l/m 2 min 0 min 0,0 UV-I 153 W/m 12,9 km/h (3 Bft)
26.03.2013 17:46 4,6 C 2,9 C 48 % 1010,9 hPa 0,0 l/m 2 min 0 min 0,0 UV-I 149 W/m 10,3 km/h (2 Bft)
26.03.2013 17:48 4,6 C 2,9 C 48 % 1010,9 hPa 0,0 l/m 2 min 0 min 0,0 UV-I 128 W/m 10,3 km/h (2 Bft)
26.03.2013 17:50 4,5 C 2,9 C 48 % 1010,9 hPa 0,0 l/m 2 min 0 min 0,0 UV-I 125 W/m 15,4 km/h (3 Bft)
26.03.2013 17:52 4,4 C 2,9 C 47 % 1010,9 hPa 0,0 l/m 2 min 0 min 0,0 UV-I 120 W/m 12,9 km/h (3 Bft)
26.03.2013 17:54 4,3 C 2,9 C 48 % 1010,9 hPa 0,0 l/m 0 min 0 min 0,0 UV-I 72 W/m 12,9 km/h (3 Bft)
26.03.2013 17:56 4,3 C 2,9 C 47 % 1011,0 hPa 0,0 l/m 2 min 0 min 0,0 UV-I 86 W/m 15,4 km/h (3 Bft)
26.03.2013 17:58 4,2 C 2,3 C 48 % 1011,0 hPa 0,0 l/m 2 min 0 min 0,0 UV-I 97 W/m 12,9 km/h (3 Bft)
26.03.2013 18:00 4,2 C 2,3 C 48 % 1011,1 hPa 0,0 l/m 2 min 0 min 0,0 UV-I 93 W/m 12,9 km/h (3 Bft)
26.03.2013 18:02 4,1 C 2,3 C 48 % 1011,0 hPa 0,0 l/m 0 min 0 min 0,0 UV-I 60 W/m 12,9 km/h (3 Bft)
26.03.2013 18:04 4,1 C 2,3 C 48 % 1011,0 hPa 0,0 l/m 0 min 0 min 0,0 UV-I 56 W/m 15,4 km/h (3 Bft)
26.03.2013 18:06 4,0 C 2,3 C 48 % 1011,0 hPa 0,0 l/m 2 min 0 min 0,0 UV-I 86 W/m 15,4 km/h (3 Bft)
26.03.2013 18:08 3,9 C 2,3 C 49 % 1011,0 hPa 0,0 l/m 2 min 0 min 0,0 UV-I 83 W/m 10,3 km/h (2 Bft)
26.03.2013 18:10 3,9 C 2,3 C 49 % 1011,1 hPa 0,0 l/m 2 min 0 min 0,0 UV-I 76 W/m 10,3 km/h (2 Bft)
26.03.2013 18:12 3,8 C 2,3 C 49 % 1011,0 hPa 0,0 l/m 2 min 0 min 0,0 UV-I 72 W/m 18,0 km/h (3 Bft)
26.03.2013 18:14 3,8 C 1,8 C 49 % 1011,1 hPa 0,0 l/m 2 min 0 min 0,0 UV-I 67 W/m 12,9 km/h (3 Bft)
26.03.2013 18:16 3,7 C 1,8 C 49 % 1011,1 hPa 0,0 l/m 2 min 0 min 0,0 UV-I 62 W/m 10,3 km/h (2 Bft)
26.03.2013 18:18 3,7 C 1,8 C 49 % 1011,1 hPa 0,0 l/m 2 min 0 min 0,0 UV-I 56 W/m 10,3 km/h (2 Bft)
26.03.2013 18:20 3,6 C 1,8 C 49 % 1011,1 hPa 0,0 l/m 2 min 0 min 0,0 UV-I 53 W/m 10,3 km/h (2 Bft)
26.03.2013 18:22 3,6 C 1,8 C 49 % 1011,0 hPa 0,0 l/m 0 min 0 min 0,0 UV-I 44 W/m 12,9 km/h (3 Bft)
26.03.2013 18:24 3,5 C 1,8 C 49 % 1011,1 hPa 0,0 l/m 0 min 0 min 0,0 UV-I 32 W/m 15,4 km/h (3 Bft)
26.03.2013 18:26 3,4 C 1,8 C 49 % 1011,1 hPa 0,0 l/m 0 min 0 min 0,0 UV-I 25 W/m 18,0 km/h (3 Bft)
26.03.2013 18:28 3,3 C 1,2 C 49 % 1011,2 hPa 0,0 l/m 0 min 0 min 0,0 UV-I 19 W/m 10,3 km/h (2 Bft)
26.03.2013 18:30 3,3 C 1,2 C 50 % 1011,2 hPa 0,0 l/m 0 min 0 min 0,0 UV-I 18 W/m 10,3 km/h (2 Bft)
26.03.2013 18:32 3,2 C 1,2 C 50 % 1011,2 hPa 0,0 l/m 0 min 0 min 0,0 UV-I 18 W/m 10,3 km/h (2 Bft)
26.03.2013 18:34 3,2 C 1,2 C 50 % 1011,2 hPa 0,0 l/m 0 min 0 min 0,0 UV-I 16 W/m 10,3 km/h (2 Bft)
26.03.2013 18:36 3,1 C 1,2 C 51 % 1011,3 hPa 0,0 l/m 0 min 0 min 0,0 UV-I 14 W/m 10,3 km/h (2 Bft)
26.03.2013 18:38 3,1 C 1,2 C 50 % 1011,3 hPa 0,0 l/m 0 min 0 min 0,0 UV-I 14 W/m 12,9 km/h (3 Bft)
26.03.2013 18:40 2,9 C 1,2 C 50 % 1011,3 hPa 0,0 l/m 0 min 0 min 0,0 UV-I 12 W/m 7,7 km/h (2 Bft)
26.03.2013 18:42 2,9 C 1,2 C 50 % 1011,4 hPa 0,0 l/m 0 min 0 min 0,0 UV-I 12 W/m 7,7 km/h (2 Bft)
26.03.2013 18:44 2,8 C 0,7 C 50 % 1011,3 hPa 0,0 l/m 0 min 0 min 0,0 UV-I 11 W/m 5,1 km/h (1 Bft)
26.03.2013 18:46 2,8 C 0,7 C 51 % 1011,3 hPa 0,0 l/m 0 min 0 min 0,0 UV-I 9 W/m 5,1 km/h (1 Bft)
26.03.2013 18:48 2,8 C 0,7 C 51 % 1011,4 hPa 0,0 l/m 0 min 0 min 0,0 UV-I 9 W/m 15,4 km/h (3 Bft)
26.03.2013 18:50 2,7 C 0,7 C 51 % 1011,4 hPa 0,0 l/m 0 min 0 min 0,0 UV-I 7 W/m 15,4 km/h (3 Bft)
26.03.2013 18:52 2,7 C 0,7 C 51 % 1011,5 hPa 0,0 l/m 0 min 0 min 0,0 UV-I 7 W/m 12,9 km/h (3 Bft)
26.03.2013 18:54 2,6 C 0,7 C 51 % 1011,5 hPa 0,0 l/m 0 min 0 min 0,0 UV-I 5 W/m 12,9 km/h (3 Bft)
26.03.2013 18:56 2,5 C 0,7 C 51 % 1011,5 hPa 0,0 l/m 0 min 0 min 0,0 UV-I 5 W/m 10,3 km/h (2 Bft)
26.03.2013 18:58 2,4 C 0,7 C 52 % 1011,6 hPa 0,0 l/m 0 min 0 min 0,0 UV-I 5 W/m 5,1 km/h (1 Bft)
26.03.2013 19:00 2,4 C 0,7 C 52 % 1011,6 hPa 0,0 l/m 0 min 0 min 0,0 UV-I 0 W/m 2,6 km/h (1 Bft)
26.03.2013 19:02 2,4 C 0,1 C 52 % 1011,6 hPa 0,0 l/m 0 min 0 min 0,0 UV-I 0 W/m 7,7 km/h (2 Bft)
26.03.2013 19:04 2,3 C 0,1 C 52 % 1011,6 hPa 0,0 l/m 0 min 0 min 0,0 UV-I 0 W/m 0,0 km/h (0 Bft)
26.03.2013 19:06 2,3 C 0,1 C 52 % 1011,5 hPa 0,0 l/m 0 min 0 min 0,0 UV-I 0 W/m 2,6 km/h (1 Bft)
26.03.2013 19:08 2,2 C 0,1 C 53 % 1011,7 hPa 0,0 l/m 0 min 0 min 0,0 UV-I 0 W/m 5,1 km/h (1 Bft)
26.03.2013 19:10 2,2 C 0,1 C 53 % 1011,6 hPa 0,0 l/m 0 min 0 min 0,0 UV-I 0 W/m 5,1 km/h (1 Bft)
26.03.2013 19:12 2,1 C 0,1 C 53 % 1011,7 hPa 0,0 l/m 0 min 0 min 0,0 UV-I 0 W/m 5,1 km/h (1 Bft)
26.03.2013 19:14 2,1 C 0,1 C 53 % 1011,6 hPa 0,0 l/m 0 min 0 min 0,0 UV-I 0 W/m 15,4 km/h (3 Bft)
26.03.2013 19:16 2,0 C 0,1 C 53 % 1011,7 hPa 0,0 l/m 0 min 0 min 0,0 UV-I 0 W/m 7,7 km/h (2 Bft)
26.03.2013 19:18 1,9 C 0,1 C 53 % 1011,6 hPa 0,0 l/m 0 min 0 min 0,0 UV-I 0 W/m 7,7 km/h (2 Bft)
26.03.2013 19:20 1,9 C 0,1 C 53 % 1011,6 hPa 0,0 l/m 0 min 0 min 0,0 UV-I 0 W/m 15,4 km/h (3 Bft)
26.03.2013 19:22 1,9 C 0,1 C 53 % 1011,8 hPa 0,0 l/m 0 min 0 min 0,0 UV-I 0 W/m 7,7 km/h (2 Bft)
26.03.2013 19:24 1,8 C 0,1 C 54 % 1011,7 hPa 0,0 l/m 0 min 0 min 0,0 UV-I 0 W/m 7,7 km/h (2 Bft)
26.03.2013 19:26 1,8 C 0,1 C 54 % 1011,8 hPa 0,0 l/m 0 min 0 min 0,0 UV-I 0 W/m 7,7 km/h (2 Bft)
26.03.2013 19:28 1,8 C 0,1 C 54 % 1011,8 hPa 0,0 l/m 0 min 0 min 0,0 UV-I 0 W/m 10,3 km/h (2 Bft)
26.03.2013 19:30 1,8 C 0,1 C 54 % 1011,8 hPa 0,0 l/m 0 min 0 min 0,0 UV-I 0 W/m 10,3 km/h (2 Bft)
26.03.2013 19:32 1,7 C -0,4 C 55 % 1011,7 hPa 0,0 l/m 0 min 0 min 0,0 UV-I 0 W/m 10,3 km/h (2 Bft)
26.03.2013 19:34 1,7 C 0,1 C 55 % 1011,8 hPa 0,0 l/m 0 min 0 min 0,0 UV-I 0 W/m 7,7 km/h (2 Bft)
26.03.2013 19:36 1,7 C 0,1 C 55 % 1011,8 hPa 0,0 l/m 0 min 0 min 0,0 UV-I 0 W/m 12,9 km/h (3 Bft)
26.03.2013 19:38 1,6 C 0,1 C 54 % 1011,9 hPa 0,0 l/m 0 min 0 min 0,0 UV-I 0 W/m 15,4 km/h (3 Bft)
26.03.2013 19:40 1,6 C 0,1 C 55 % 1011,9 hPa 0,0 l/m 0 min 0 min 0,0 UV-I 0 W/m 20,6 km/h (4 Bft)
26.03.2013 19:42 1,6 C 0,1 C 55 % 1012,0 hPa 0,0 l/m 0 min 0 min 0,0 UV-I 0 W/m 12,9 km/h (3 Bft)
26.03.2013 19:44 1,6 C -0,4 C 55 % 1011,9 hPa 0,0 l/m 0 min 0 min 0,0 UV-I 0 W/m 10,3 km/h (2 Bft)
26.03.2013 19:46 1,5 C -0,4 C 55 % 1011,9 hPa 0,0 l/m 0 min 0 min 0,0 UV-I 0 W/m 10,3 km/h (2 Bft)
26.03.2013 19:48 1,4 C -0,4 C 56 % 1012,0 hPa 0,0 l/m 0 min 0 min 0,0 UV-I 0 W/m 7,7 km/h (2 Bft)
26.03.2013 19:50 1,4 C -0,4 C 56 % 1012,0 hPa 0,0 l/m 0 min 0 min 0,0 UV-I 0 W/m 12,9 km/h (3 Bft)
26.03.2013 19:52 1,3 C -0,4 C 56 % 1012,0 hPa 0,0 l/m 0 min 0 min 0,0 UV-I 0 W/m 10,3 km/h (2 Bft)
26.03.2013 19:54 1,3 C -0,4 C 56 % 1012,0 hPa 0,0 l/m 0 min 0 min 0,0 UV-I 0 W/m 12,9 km/h (3 Bft)
26.03.2013 19:56 1,3 C -0,4 C 56 % 1012,1 hPa 0,0 l/m 0 min 0 min 0,0 UV-I 0 W/m 15,4 km/h (3 Bft)
26.03.2013 19:58 1,3 C -0,4 C 56 % 1012,0 hPa 0,0 l/m 0 min 0 min 0,0 UV-I 0 W/m 15,4 km/h (3 Bft)
26.03.2013 20:00 1,3 C -0,4 C 57 % 1012,0 hPa 0,0 l/m 0 min 0 min 0,0 UV-I 0 W/m 7,7 km/h (2 Bft)
26.03.2013 20:02 1,3 C -0,4 C 57 % 1012,0 hPa 0,0 l/m 0 min 0 min 0,0 UV-I 0 W/m 10,3 km/h (2 Bft)
26.03.2013 20:04 1,3 C -0,4 C 57 % 1012,0 hPa 0,0 l/m 0 min 0 min 0,0 UV-I 0 W/m 7,7 km/h (2 Bft)
26.03.2013 20:06 1,3 C -0,4 C 57 % 1012,1 hPa 0,0 l/m 0 min 0 min 0,0 UV-I 0 W/m 15,4 km/h (3 Bft)
26.03.2013 20:08 1,3 C -0,4 C 57 % 1012,1 hPa 0,0 l/m 0 min 0 min 0,0 UV-I 0 W/m 15,4 km/h (3 Bft)
26.03.2013 20:10 1,3 C -0,4 C 57 % 1012,1 hPa 0,0 l/m 0 min 0 min 0,0 UV-I 0 W/m 7,7 km/h (2 Bft)
26.03.2013 20:12 1,2 C -0,4 C 58 % 1012,2 hPa 0,0 l/m 0 min 0 min 0,0 UV-I 0 W/m 12,9 km/h (3 Bft)
26.03.2013 20:14 1,2 C -0,4 C 58 % 1012,1 hPa 0,0 l/m 0 min 0 min 0,0 UV-I 0 W/m 12,9 km/h (3 Bft)
26.03.2013 20:16 1,2 C -0,4 C 58 % 1012,2 hPa 0,0 l/m 0 min 0 min 0,0 UV-I 0 W/m 10,3 km/h (2 Bft)
26.03.2013 20:18 1,2 C -0,4 C 58 % 1012,2 hPa 0,0 l/m 0 min 0 min 0,0 UV-I 0 W/m 20,6 km/h (4 Bft)
26.03.2013 20:20 1,1 C -0,4 C 58 % 1012,2 hPa 0,0 l/m 0 min 0 min 0,0 UV-I 0 W/m 7,7 km/h (2 Bft)
26.03.2013 20:22 1,1 C -0,4 C 58 % 1012,2 hPa 0,0 l/m 0 min 0 min 0,0 UV-I 0 W/m 7,7 km/h (2 Bft)
26.03.2013 20:24 1,1 C -1,0 C 59 % 1012,2 hPa 0,0 l/m 0 min 0 min 0,0 UV-I 0 W/m 7,7 km/h (2 Bft)
26.03.2013 20:26 1,1 C -1,0 C 59 % 1012,2 hPa 0,0 l/m 0 min 0 min 0,0 UV-I 0 W/m 10,3 km/h (2 Bft)
26.03.2013 20:28 1,0 C -1,0 C 62 % 1012,2 hPa 0,0 l/m 0 min 0 min 0,0 UV-I 0 W/m 12,9 km/h (3 Bft)
26.03.2013 20:30 0,9 C -1,0 C 59 % 1012,2 hPa 0,0 l/m 0 min 0 min 0,0 UV-I 0 W/m 20,6 km/h (4 Bft)
26.03.2013 20:32 0,9 C -1,0 C 59 % 1012,2 hPa 0,0 l/m 0 min 0 min 0,0 UV-I 0 W/m 7,7 km/h (2 Bft)
26.03.2013 20:34 0,8 C -1,0 C 59 % 1012,3 hPa 0,0 l/m 0 min 0 min 0,0 UV-I 0 W/m 10,3 km/h (2 Bft)
26.03.2013 20:36 0,8 C -1,0 C 60 % 1012,2 hPa 0,0 l/m 0 min 0 min 0,0 UV-I 0 W/m 7,7 km/h (2 Bft)
26.03.2013 20:38 0,8 C -1,0 C 60 % 1012,2 hPa 0,0 l/m 0 min 0 min 0,0 UV-I 0 W/m 5,1 km/h (1 Bft)
26.03.2013 20:40 0,8 C -1,0 C 60 % 1012,3 hPa 0,0 l/m 0 min 0 min 0,0 UV-I 0 W/m 5,1 km/h (1 Bft)
26.03.2013 20:42 0,7 C -1,0 C 60 % 1012,2 hPa 0,0 l/m 0 min 0 min 0,0 UV-I 0 W/m 12,9 km/h (3 Bft)
26.03.2013 20:44 0,7 C -1,0 C 60 % 1012,3 hPa 0,0 l/m 0 min 0 min 0,0 UV-I 0 W/m 12,9 km/h (3 Bft)
26.03.2013 20:46 0,7 C -1,0 C 60 % 1012,3 hPa 0,0 l/m 0 min 0 min 0,0 UV-I 0 W/m 7,7 km/h (2 Bft)
26.03.2013 20:48 0,7 C -1,0 C 60 % 1012,3 hPa 0,0 l/m 0 min 0 min 0,0 UV-I 0 W/m 12,9 km/h (3 Bft)
26.03.2013 20:50 0,7 C -1,0 C 61 % 1012,3 hPa 0,0 l/m 0 min 0 min 0,0 UV-I 0 W/m 7,7 km/h (2 Bft)
26.03.2013 20:52 0,7 C -1,0 C 61 % 1012,3 hPa 0,0 l/m 0 min 0 min 0,0 UV-I 0 W/m 7,7 km/h (2 Bft)
26.03.2013 20:54 0,6 C -1,0 C 61 % 1012,3 hPa 0,0 l/m 0 min 0 min 0,0 UV-I 0 W/m 2,6 km/h (1 Bft)
26.03.2013 20:56 0,6 C -1,0 C 61 % 1012,3 hPa 0,0 l/m 0 min 0 min 0,0 UV-I 0 W/m 12,9 km/h (3 Bft)
26.03.2013 20:58 0,6 C -1,0 C 61 % 1012,4 hPa 0,0 l/m 0 min 0 min 0,0 UV-I 0 W/m 7,7 km/h (2 Bft)
26.03.2013 21:00 0,6 C -1,0 C 61 % 1012,3 hPa 0,0 l/m 0 min 0 min 0,0 UV-I 0 W/m 7,7 km/h (2 Bft)
26.03.2013 21:02 0,5 C -1,0 C 61 % 1012,3 hPa 0,0 l/m 0 min 0 min 0,0 UV-I 0 W/m 7,7 km/h (2 Bft)
26.03.2013 21:04 0,5 C -1,6 C 62 % 1012,3 hPa 0,0 l/m 0 min 0 min 0,0 UV-I 0 W/m 5,1 km/h (1 Bft)
26.03.2013 21:06 0,4 C -1,6 C 62 % 1012,3 hPa 0,0 l/m 0 min 0 min 0,0 UV-I 0 W/m 7,7 km/h (2 Bft)
26.03.2013 21:08 0,4 C -1,6 C 62 % 1012,3 hPa 0,0 l/m 0 min 0 min 0,0 UV-I 0 W/m 10,3 km/h (2 Bft)
26.03.2013 21:10 0,4 C -1,6 C 62 % 1012,4 hPa 0,0 l/m 0 min 0 min 0,0 UV-I 0 W/m 2,6 km/h (1 Bft)
26.03.2013 21:12 0,4 C -1,6 C 62 % 1012,4 hPa 0,0 l/m 0 min 0 min 0,0 UV-I 0 W/m 7,7 km/h (2 Bft)
26.03.2013 21:14 0,3 C -1,6 C 62 % 1012,5 hPa 0,0 l/m 0 min 0 min 0,0 UV-I 0 W/m 7,7 km/h (2 Bft)
26.03.2013 21:16 0,3 C -1,6 C 62 % 1012,4 hPa 0,0 l/m 0 min 0 min 0,0 UV-I 0 W/m 10,3 km/h (2 Bft)
26.03.2013 21:18 0,3 C -1,6 C 62 % 1012,4 hPa 0,0 l/m 0 min 0 min 0,0 UV-I 0 W/m 12,9 km/h (3 Bft)
26.03.2013 21:20 0,3 C -1,6 C 62 % 1012,4 hPa 0,0 l/m 0 min 0 min 0,0 UV-I 0 W/m 2,6 km/h (1 Bft)
26.03.2013 21:22 0,3 C -1,6 C 63 % 1012,4 hPa 0,0 l/m 0 min 0 min 0,0 UV-I 0 W/m 2,6 km/h (1 Bft)
26.03.2013 21:24 0,3 C -1,6 C 63 % 1012,4 hPa 0,0 l/m 0 min 0 min 0,0 UV-I 0 W/m 5,1 km/h (1 Bft)
26.03.2013 21:26 0,2 C -1,6 C 63 % 1012,5 hPa 0,0 l/m 0 min 0 min 0,0 UV-I 0 W/m 7,7 km/h (2 Bft)
26.03.2013 21:28 0,2 C -1,6 C 63 % 1012,5 hPa 0,0 l/m 0 min 0 min 0,0 UV-I 0 W/m 7,7 km/h (2 Bft)
26.03.2013 21:30 0,2 C -1,6 C 63 % 1012,5 hPa 0,0 l/m 0 min 0 min 0,0 UV-I 0 W/m 10,3 km/h (2 Bft)
26.03.2013 21:32 0,2 C -1,6 C 63 % 1012,5 hPa 0,0 l/m 0 min 0 min 0,0 UV-I 0 W/m 5,1 km/h (1 Bft)
26.03.2013 21:34 0,2 C -1,6 C 63 % 1012,5 hPa 0,0 l/m 0 min 0 min 0,0 UV-I 0 W/m 12,9 km/h (3 Bft)
26.03.2013 21:36 0,2 C -1,6 C 64 % 1012,5 hPa 0,0 l/m 0 min 0 min 0,0 UV-I 0 W/m 7,7 km/h (2 Bft)
26.03.2013 21:38 0,2 C -1,6 C 64 % 1012,5 hPa 0,0 l/m 0 min 0 min 0,0 UV-I 0 W/m 15,4 km/h (3 Bft)
26.03.2013 21:40 0,2 C -1,6 C 64 % 1012,5 hPa 0,0 l/m 0 min 0 min 0,0 UV-I 0 W/m 0,0 km/h (0 Bft)
26.03.2013 21:42 0,2 C -1,6 C 64 % 1012,5 hPa 0,0 l/m 0 min 0 min 0,0 UV-I 0 W/m 10,3 km/h (2 Bft)
26.03.2013 21:44 0,2 C -1,6 C 64 % 1012,6 hPa 0,0 l/m 0 min 0 min 0,0 UV-I 0 W/m 10,3 km/h (2 Bft)
26.03.2013 21:46 0,1 C -1,6 C 64 % 1012,6 hPa 0,0 l/m 0 min 0 min 0,0 UV-I 0 W/m 7,7 km/h (2 Bft)
26.03.2013 21:48 0,1 C -1,6 C 64 % 1012,6 hPa 0,0 l/m 0 min 0 min 0,0 UV-I 0 W/m 2,6 km/h (1 Bft)
26.03.2013 21:50 0,1 C -1,6 C 64 % 1012,5 hPa 0,0 l/m 0 min 0 min 0,0 UV-I 0 W/m 10,3 km/h (2 Bft)
26.03.2013 21:52 0,1 C -1,6 C 64 % 1012,5 hPa 0,0 l/m 0 min 0 min 0,0 UV-I 0 W/m 5,1 km/h (1 Bft)
26.03.2013 21:54 0,1 C -1,6 C 64 % 1012,5 hPa 0,0 l/m 0 min 0 min 0,0 UV-I 0 W/m 2,6 km/h (1 Bft)
26.03.2013 21:56 0,0 C -1,6 C 65 % 1012,5 hPa 0,0 l/m 0 min 0 min 0,0 UV-I 0 W/m 5,1 km/h (1 Bft)
26.03.2013 21:58 0,0 C -2,1 C 65 % 1012,5 hPa 0,0 l/m 0 min 0 min 0,0 UV-I 0 W/m 2,6 km/h (1 Bft)
26.03.2013 22:00 0,0 C -2,1 C 65 % 1012,5 hPa 0,0 l/m 0 min 0 min 0,0 UV-I 0 W/m 10,3 km/h (2 Bft)
26.03.2013 22:02 -0,1 C -1,6 C 65 % 1012,5 hPa 0,0 l/m 0 min 0 min 0,0 UV-I 0 W/m 12,9 km/h (3 Bft)
26.03.2013 22:04 -0,1 C -1,6 C 65 % 1012,5 hPa 0,0 l/m 0 min 0 min 0,0 UV-I 0 W/m 7,7 km/h (2 Bft)
26.03.2013 22:06 -0,1 C -1,6 C 65 % 1012,5 hPa 0,0 l/m 0 min 0 min 0,0 UV-I 0 W/m 18,0 km/h (3 Bft)
26.03.2013 22:08 -0,1 C -1,6 C 65 % 1012,5 hPa 0,0 l/m 0 min 0 min 0,0 UV-I 0 W/m 18,0 km/h (3 Bft)
26.03.2013 22:10 -0,1 C -1,6 C 65 % 1012,5 hPa 0,0 l/m 0 min 0 min 0,0 UV-I 0 W/m 7,7 km/h (2 Bft)
26.03.2013 22:12 -0,1 C -1,6 C 65 % 1012,5 hPa 0,0 l/m 0 min 0 min 0,0 UV-I 0 W/m 10,3 km/h (2 Bft)
26.03.2013 22:14 -0,1 C -1,6 C 66 % 1012,5 hPa 0,0 l/m 0 min 0 min 0,0 UV-I 0 W/m 0,0 km/h (0 Bft)
26.03.2013 22:16 -0,2 C -2,1 C 66 % 1012,5 hPa 0,0 l/m 0 min 0 min 0,0 UV-I 0 W/m 0,0 km/h (0 Bft)
26.03.2013 22:18 -0,2 C -2,1 C 66 % 1012,5 hPa 0,0 l/m 0 min 0 min 0,0 UV-I 0 W/m 5,1 km/h (1 Bft)
26.03.2013 22:20 -0,2 C -2,1 C 66 % 1012,5 hPa 0,0 l/m 0 min 0 min 0,0 UV-I 0 W/m 10,3 km/h (2 Bft)
26.03.2013 22:22 -0,2 C -2,1 C 66 % 1012,5 hPa 0,0 l/m 0 min 0 min 0,0 UV-I 0 W/m 7,7 km/h (2 Bft)
26.03.2013 22:24 -0,3 C -2,1 C 67 % 1012,6 hPa 0,0 l/m 0 min 0 min 0,0 UV-I 0 W/m 10,3 km/h (2 Bft)
26.03.2013 22:26 -0,3 C -2,1 C 67 % 1012,6 hPa 0,0 l/m 0 min 0 min 0,0 UV-I 0 W/m 2,6 km/h (1 Bft)
26.03.2013 22:28 -0,3 C -2,1 C 67 % 1012,6 hPa 0,0 l/m 0 min 0 min 0,0 UV-I 0 W/m 2,6 km/h (1 Bft)
26.03.2013 22:30 -0,3 C -2,1 C 67 % 1012,5 hPa 0,0 l/m 0 min 0 min 0,0 UV-I 0 W/m 0,0 km/h (0 Bft)
26.03.2013 22:32 -0,4 C -2,7 C 67 % 1012,6 hPa 0,0 l/m 0 min 0 min 0,0 UV-I 0 W/m 0,0 km/h (0 Bft)
26.03.2013 22:34 -0,4 C -2,7 C 67 % 1012,6 hPa 0,0 l/m 0 min 0 min 0,0 UV-I 0 W/m 2,6 km/h (1 Bft)
26.03.2013 22:36 -0,4 C -2,1 C 67 % 1012,6 hPa 0,0 l/m 0 min 0 min 0,0 UV-I 0 W/m 2,6 km/h (1 Bft)
26.03.2013 22:38 -0,4 C -2,1 C 67 % 1012,5 hPa 0,0 l/m 0 min 0 min 0,0 UV-I 0 W/m 0,0 km/h (0 Bft)
26.03.2013 22:40 -0,5 C -2,7 C 68 % 1012,6 hPa 0,0 l/m 0 min 0 min 0,0 UV-I 0 W/m 0,0 km/h (0 Bft)
26.03.2013 22:42 -0,5 C -2,1 C 68 % 1012,6 hPa 0,0 l/m 0 min 0 min 0,0 UV-I 0 W/m 12,9 km/h (3 Bft)
26.03.2013 22:44 -0,6 C -2,1 C 68 % 1012,6 hPa 0,0 l/m 0 min 0 min 0,0 UV-I 0 W/m 0,0 km/h (0 Bft)
26.03.2013 22:46 -0,6 C -2,1 C 68 % 1012,6 hPa 0,0 l/m 0 min 0 min 0,0 UV-I 0 W/m 10,3 km/h (2 Bft)
26.03.2013 22:48 -0,6 C -2,7 C 68 % 1012,6 hPa 0,0 l/m 0 min 0 min 0,0 UV-I 0 W/m 0,0 km/h (0 Bft)
26.03.2013 22:50 -0,6 C -2,7 C 68 % 1012,7 hPa 0,0 l/m 0 min 0 min 0,0 UV-I 0 W/m 7,7 km/h (2 Bft)
26.03.2013 22:52 -0,6 C -2,1 C 69 % 1012,7 hPa 0,0 l/m 0 min 0 min 0,0 UV-I 0 W/m 7,7 km/h (2 Bft)
26.03.2013 22:54 -0,7 C -2,1 C 69 % 1012,6 hPa 0,0 l/m 0 min 0 min 0,0 UV-I 0 W/m 12,9 km/h (3 Bft)
26.03.2013 22:56 -0,7 C -2,1 C 69 % 1012,5 hPa 0,0 l/m 0 min 0 min 0,0 UV-I 0 W/m 0,0 km/h (0 Bft)
26.03.2013 22:58 -0,7 C -2,1 C 69 % 1012,6 hPa 0,0 l/m 0 min 0 min 0,0 UV-I 0 W/m 0,0 km/h (0 Bft)
26.03.2013 23:00 -0,7 C -2,1 C 69 % 1012,6 hPa 0,0 l/m 0 min 0 min 0,0 UV-I 0 W/m 15,4 km/h (3 Bft)
26.03.2013 23:02 -0,7 C -2,1 C 69 % 1012,6 hPa 0,0 l/m 0 min 0 min 0,0 UV-I 0 W/m 10,3 km/h (2 Bft)
26.03.2013 23:04 -0,7 C -2,1 C 69 % 1012,6 hPa 0,0 l/m 0 min 0 min 0,0 UV-I 0 W/m 5,1 km/h (1 Bft)
26.03.2013 23:06 -0,7 C -2,1 C 69 % 1012,6 hPa 0,0 l/m 0 min 0 min 0,0 UV-I 0 W/m 0,0 km/h (0 Bft)
26.03.2013 23:08 -0,7 C -2,7 C 69 % 1012,6 hPa 0,0 l/m 0 min 0 min 0,0 UV-I 0 W/m 5,1 km/h (1 Bft)
26.03.2013 23:10 -0,8 C -2,1 C 69 % 1012,6 hPa 0,0 l/m 0 min 0 min 0,0 UV-I 0 W/m 7,7 km/h (2 Bft)
26.03.2013 23:12 -0,8 C -2,7 C 69 % 1012,5 hPa 0,0 l/m 0 min 0 min 0,0 UV-I 0 W/m 7,7 km/h (2 Bft)
26.03.2013 23:14 -0,8 C -2,1 C 69 % 1012,5 hPa 0,0 l/m 0 min 0 min 0,0 UV-I 0 W/m 12,9 km/h (3 Bft)
26.03.2013 23:16 -0,8 C -2,1 C 69 % 1012,5 hPa 0,0 l/m 0 min 0 min 0,0 UV-I 0 W/m 7,7 km/h (2 Bft)
26.03.2013 23:18 -0,8 C -2,7 C 70 % 1012,6 hPa 0,0 l/m 0 min 0 min 0,0 UV-I 0 W/m 2,6 km/h (1 Bft)
26.03.2013 23:20 -0,8 C -2,7 C 70 % 1012,6 hPa 0,0 l/m 0 min 0 min 0,0 UV-I 0 W/m 5,1 km/h (1 Bft)
26.03.2013 23:22 -0,9 C -2,7 C 70 % 1012,6 hPa 0,0 l/m 0 min 0 min 0,0 UV-I 0 W/m 0,0 km/h (0 Bft)
26.03.2013 23:24 -0,9 C -2,7 C 70 % 1012,6 hPa 0,0 l/m 0 min 0 min 0,0 UV-I 0 W/m 2,6 km/h (1 Bft)
26.03.2013 23:26 -0,9 C -2,7 C 70 % 1012,5 hPa 0,0 l/m 0 min 0 min 0,0 UV-I 0 W/m 0,0 km/h (0 Bft)
26.03.2013 23:28 -0,9 C -2,7 C 70 % 1012,5 hPa 0,0 l/m 0 min 0 min 0,0 UV-I 0 W/m 5,1 km/h (1 Bft)
26.03.2013 23:30 -0,9 C -2,7 C 70 % 1012,5 hPa 0,0 l/m 0 min 0 min 0,0 UV-I 0 W/m 2,6 km/h (1 Bft)
26.03.2013 23:32 -1,0 C -2,7 C 70 % 1012,6 hPa 0,0 l/m 0 min 0 min 0,0 UV-I 0 W/m 2,6 km/h (1 Bft)
26.03.2013 23:34 -1,0 C -2,7 C 70 % 1012,5 hPa 0,0 l/m 0 min 0 min 0,0 UV-I 0 W/m 2,6 km/h (1 Bft)
26.03.2013 23:36 -1,1 C -2,7 C 70 % 1012,6 hPa 0,0 l/m 0 min 0 min 0,0 UV-I 0 W/m 5,1 km/h (1 Bft)
26.03.2013 23:38 -1,1 C -2,7 C 71 % 1012,6 hPa 0,0 l/m 0 min 0 min 0,0 UV-I 0 W/m 5,1 km/h (1 Bft)
26.03.2013 23:40 -1,1 C -2,7 C 71 % 1012,6 hPa 0,0 l/m 0 min 0 min 0,0 UV-I 0 W/m 2,6 km/h (1 Bft)
26.03.2013 23:42 -1,1 C -2,7 C 71 % 1012,6 hPa 0,0 l/m 0 min 0 min 0,0 UV-I 0 W/m 0,0 km/h (0 Bft)
26.03.2013 23:44 -1,1 C -2,7 C 71 % 1012,6 hPa 0,0 l/m 0 min 0 min 0,0 UV-I 0 W/m 2,6 km/h (1 Bft)
26.03.2013 23:46 -1,2 C -2,7 C 71 % 1012,6 hPa 0,0 l/m 0 min 0 min 0,0 UV-I 0 W/m 0,0 km/h (0 Bft)
26.03.2013 23:48 -1,2 C -3,2 C 71 % 1012,6 hPa 0,0 l/m 0 min 0 min 0,0 UV-I 0 W/m 2,6 km/h (1 Bft)
26.03.2013 23:50 -1,2 C -3,2 C 71 % 1012,5 hPa 0,0 l/m 0 min 0 min 0,0 UV-I 0 W/m 0,0 km/h (0 Bft)
26.03.2013 23:52 -1,2 C -3,2 C 72 % 1012,6 hPa 0,0 l/m 0 min 0 min 0,0 UV-I 0 W/m 5,1 km/h (1 Bft)
26.03.2013 23:54 -1,3 C -3,2 C 72 % 1012,6 hPa 0,0 l/m 0 min 0 min 0,0 UV-I 0 W/m 5,1 km/h (1 Bft)
26.03.2013 23:56 -1,3 C -3,2 C 72 % 1012,6 hPa 0,0 l/m 0 min 0 min 0,0 UV-I 0 W/m 0,0 km/h (0 Bft)
26.03.2013 23:58 -1,3 C -3,2 C 72 % 1012,6 hPa 0,0 l/m 0 min 0 min 0,0 UV-I 0 W/m 2,6 km/h (1 Bft)
_ Min-Zeit 06:30 05:48 14:02 17:14 - - - - - 00:04
Minimum _ -3,6 C -4,9 C 44 % 1010,7 hPa - - - - - 0,0 km/h (0 Bft)
_ Max-Zeit 15:40 15:38 23:52 08:44 00:00 08:02 00:00 12:20 13:10 13:28
Maximum _ 6,5 C 10,1 C 72 % 1013,4 hPa 0,0 l/m 2 min 0 min 1,6 UV-I 656 W/m 33,5 km/h
W-NW (5 Bft)
Durchschnitt _ 0,7 C -0,3 C 60 % 1012,4 hPa #0,0 l/m #10:12 h #0 min. 1,2 UV-I 369 W/m 10,3 km/h (2 Bft)
© 2013 W. Hausmann